Time,TemperatureF,DewpointF,PressureIn,WindDirection,WindDirectionDegrees,WindSpeedMPH,WindSpeedGustMPH,Humidity,HourlyPrecipIn,Conditions,Clouds,dailyrainin,SoftwareType,DateUTC
2013-06-10 00:00:00,67.3,65.2,29.03,East,84,0.0,2.0,93,0.00,,,0.00,WUHU216DAVISVP2,2013-06-10 04:00:00,
2013-06-10 00:01:00,67.3,65.2,29.03,East,84,0.0,2.0,93,0.00,,,0.00,WUHU216DAVISVP2,2013-06-10 04:01:00,
2013-06-10 00:02:00,67.3,65.2,29.03,East,84,0.0,2.0,93,0.00,,,0.00,WUHU216DAVISVP2,2013-06-10 04:02:00,
2013-06-10 00:06:00,67.3,65.2,29.03,SSE,151,5.0,6.0,93,0.00,,,0.00,WUHU216DAVISVP2,2013-06-10 04:06:00,
2013-06-10 00:07:00,67.3,65.2,29.03,SSE,157,4.0,6.0,93,0.00,,,0.00,WUHU216DAVISVP2,2013-06-10 04:07:00,
2013-06-10 00:12:00,67.3,65.2,29.03,South,177,1.0,7.0,93,0.00,,,0.00,WUHU216DAVISVP2,2013-06-10 04:12:00,
2013-06-10 00:17:00,67.2,65.1,29.03,SSE,164,1.0,7.0,93,0.00,,,0.00,WUHU216DAVISVP2,2013-06-10 04:17:00,
2013-06-10 00:22:00,67.3,65.2,29.03,SSE,158,0.0,7.0,93,0.00,,,0.00,WUHU216DAVISVP2,2013-06-10 04:22:00,
2013-06-10 00:27:00,67.3,65.2,29.03,SSE,160,1.0,8.0,93,0.00,,,0.00,WUHU216DAVISVP2,2013-06-10 04:27:00,
2013-06-10 00:28:00,67.3,65.2,29.03,South,171,0.0,8.0,93,0.00,,,0.00,WUHU216DAVISVP2,2013-06-10 04:28:00,
2013-06-10 00:32:00,67.2,65.1,29.04,SSE,157,0.0,9.0,93,0.00,,,0.00,WUHU216DAVISVP2,2013-06-10 04:32:00,
2013-06-10 00:33:00,67.2,65.1,29.04,SSE,166,0.0,9.0,93,0.00,,,0.00,WUHU216DAVISVP2,2013-06-10 04:33:00,
2013-06-10 00:37:00,67.2,65.1,29.04,SSE,152,5.0,10.0,93,0.00,,,0.00,WUHU216DAVISVP2,2013-06-10 04:37:00,
2013-06-10 00:38:00,67.2,65.1,29.03,SSE,149,7.0,10.0,93,0.00,,,0.00,WUHU216DAVISVP2,2013-06-10 04:38:00,
2013-06-10 00:42:00,67.1,65.0,29.03,SSE,164,1.0,10.0,93,0.00,,,0.00,WUHU216DAVISVP2,2013-06-10 04:42:00,
2013-06-10 00:43:00,67.1,65.0,29.03,South,172,2.0,10.0,93,0.00,,,0.00,WUHU216DAVISVP2,2013-06-10 04:43:00,
2013-06-10 00:47:00,67.1,65.0,29.03,South,181,6.0,10.0,93,0.00,,,0.00,WUHU216DAVISVP2,2013-06-10 04:47:00,
2013-06-10 00:48:00,67.1,65.0,29.04,SSE,166,5.0,10.0,93,0.00,,,0.00,WUHU216DAVISVP2,2013-06-10 04:48:00,
2013-06-10 00:49:00,67.0,64.9,29.03,SSW,193,3.0,10.0,93,0.00,,,0.00,WUHU216DAVISVP2,2013-06-10 04:49:00,
2013-06-10 00:52:00,67.0,64.9,29.03,SE,138,5.0,10.0,93,0.00,,,0.00,WUHU216DAVISVP2,2013-06-10 04:52:00,
2013-06-10 00:53:00,67.0,64.9,29.03,South,177,4.0,8.0,93,0.00,,,0.00,WUHU216DAVISVP2,2013-06-10 04:53:00,
2013-06-10 00:54:00,67.0,64.9,29.03,SSE,164,1.0,8.0,93,0.00,,,0.00,WUHU216DAVISVP2,2013-06-10 04:54:00,
2013-06-10 00:57:00,67.0,64.9,29.03,SSW,193,2.0,8.0,93,0.00,,,0.00,WUHU216DAVISVP2,2013-06-10 04:57:00,
2013-06-10 00:58:00,67.0,64.9,29.03,SSW,193,1.0,8.0,93,0.00,,,0.00,WUHU216DAVISVP2,2013-06-10 04:58:00,
2013-06-10 00:59:00,67.0,64.9,29.03,SSW,193,1.0,8.0,93,0.00,,,0.00,WUHU216DAVISVP2,2013-06-10 04:59:00,
2013-06-10 01:02:00,66.9,64.8,29.03,SSE,158,1.0,8.0,93,0.00,,,0.00,WUHU216DAVISVP2,2013-06-10 05:02:00,
2013-06-10 01:03:00,66.9,64.8,29.03,South,181,1.0,8.0,93,0.00,,,0.00,WUHU216DAVISVP2,2013-06-10 05:03:00,
2013-06-10 01:04:00,66.9,64.8,29.03,South,181,2.0,8.0,93,0.00,,,0.00,WUHU216DAVISVP2,2013-06-10 05:04:00,
2013-06-10 01:08:00,66.9,65.1,29.03,South,170,5.0,8.0,94,0.00,,,0.00,WUHU216DAVISVP2,2013-06-10 05:08:00,
2013-06-10 01:09:00,66.9,65.1,29.03,South,179,1.0,8.0,94,0.00,,,0.00,WUHU216DAVISVP2,2013-06-10 05:09:00,
2013-06-10 01:13:00,66.9,65.1,29.03,South,186,2.0,7.0,94,0.00,,,0.00,WUHU216DAVISVP2,2013-06-10 05:13:00,
2013-06-10 01:14:00,66.9,65.1,29.03,South,172,6.0,7.0,94,0.00,,,0.00,WUHU216DAVISVP2,2013-06-10 05:14:00,
2013-06-10 01:15:00,66.9,65.1,29.03,South,172,6.0,8.0,94,0.00,,,0.00,WUHU216DAVISVP2,2013-06-10 05:15:00,
2013-06-10 01:18:00,66.9,65.1,29.03,SSE,151,5.0,8.0,94,0.00,,,0.00,WUHU216DAVISVP2,2013-06-10 05:18:00,
2013-06-10 01:19:00,66.9,65.1,29.03,SSE,164,1.0,8.0,94,0.00,,,0.00,WUHU216DAVISVP2,2013-06-10 05:19:00,
2013-06-10 01:20:00,66.9,65.1,29.03,SSE,162,8.0,8.0,94,0.00,,,0.00,WUHU216DAVISVP2,2013-06-10 05:20:00,
2013-06-10 01:23:00,66.8,65.0,29.03,SE,124,0.0,9.0,94,0.00,,,0.00,WUHU216DAVISVP2,2013-06-10 05:23:00,
2013-06-10 01:24:00,66.8,65.0,29.03,SE,138,3.0,9.0,94,0.00,,,0.00,WUHU216DAVISVP2,2013-06-10 05:24:00,
2013-06-10 01:25:00,66.8,65.0,29.02,SE,134,0.0,9.0,94,0.00,,,0.00,WUHU216DAVISVP2,2013-06-10 05:25:00,
2013-06-10 01:28:00,66.9,65.1,29.02,South,170,4.0,9.0,94,0.00,,,0.00,WUHU216DAVISVP2,2013-06-10 05:28:00,
2013-06-10 01:29:00,66.8,65.0,29.02,SE,145,0.0,9.0,94,0.00,,,0.00,WUHU216DAVISVP2,2013-06-10 05:29:00,
2013-06-10 01:30:00,66.8,65.0,29.02,SSE,154,5.0,9.0,94,0.00,,,0.00,WUHU216DAVISVP2,2013-06-10 05:30:00,
2013-06-10 01:33:00,66.8,65.0,29.02,South,181,7.0,9.0,94,0.00,,,0.00,WUHU216DAVISVP2,2013-06-10 05:33:00,
2013-06-10 01:34:00,66.8,65.0,29.02,SSE,168,6.0,9.0,94,0.00,,,0.00,WUHU216DAVISVP2,2013-06-10 05:34:00,
2013-06-10 01:35:00,66.8,65.0,29.02,South,170,5.0,9.0,94,0.00,,,0.00,WUHU216DAVISVP2,2013-06-10 05:35:00,
2013-06-10 01:39:00,66.8,65.0,29.01,East,83,1.0,8.0,94,0.00,,,0.00,WUHU216DAVISVP2,2013-06-10 05:39:00,
2013-06-10 01:40:00,66.8,65.0,29.01,ESE,118,0.0,8.0,94,0.00,,,0.00,WUHU216DAVISVP2,2013-06-10 05:40:00,
2013-06-10 01:44:00,66.8,65.0,29.01,SSE,154,0.0,8.0,94,0.00,,,0.00,WUHU216DAVISVP2,2013-06-10 05:44:00,
2013-06-10 01:45:00,66.8,65.3,29.01,SSE,154,2.0,8.0,95,0.00,,,0.00,WUHU216DAVISVP2,2013-06-10 05:45:00,
2013-06-10 01:46:00,66.8,65.0,29.01,SSE,161,0.0,8.0,94,0.00,,,0.00,WUHU216DAVISVP2,2013-06-10 05:46:00,
2013-06-10 01:50:00,66.8,65.3,29.01,WSW,243,1.0,8.0,95,0.00,,,0.00,WUHU216DAVISVP2,2013-06-10 05:50:00,
2013-06-10 01:51:00,66.8,65.3,29.01,South,191,0.0,8.0,95,0.00,,,0.00,WUHU216DAVISVP2,2013-06-10 05:51:00,
2013-06-10 01:55:00,66.8,65.3,29.00,South,177,4.0,11.0,95,0.00,,,0.00,WUHU216DAVISVP2,2013-06-10 05:55:00,
2013-06-10 01:57:00,66.7,65.2,29.00,SSE,149,8.0,11.0,95,0.00,,,0.00,WUHU216DAVISVP2,2013-06-10 05:57:00,
2013-06-10 02:00:00,66.7,64.9,29.00,SE,142,0.0,11.0,94,0.00,,,0.00,WUHU216DAVISVP2,2013-06-10 06:00:00,
2013-06-10 02:01:00,66.6,64.8,29.00,SSE,158,6.0,11.0,94,0.00,,,0.00,WUHU216DAVISVP2,2013-06-10 06:01:00,
2013-06-10 02:02:00,66.6,64.8,29.00,SSE,151,5.0,11.0,94,0.00,,,0.00,WUHU216DAVISVP2,2013-06-10 06:02:00,
2013-06-10 02:05:00,66.5,64.7,29.00,SSE,157,4.0,11.0,94,0.00,,,0.00,WUHU216DAVISVP2,2013-06-10 06:05:00,
2013-06-10 02:06:00,66.5,64.7,29.00,South,191,4.0,11.0,94,0.00,,,0.00,WUHU216DAVISVP2,2013-06-10 06:06:00,
2013-06-10 02:07:00,66.4,64.6,28.99,South,173,3.0,11.0,94,0.00,,,0.00,WUHU216DAVISVP2,2013-06-10 06:07:00,
2013-06-10 02:10:00,66.3,64.5,29.00,SE,140,4.0,11.0,94,0.00,,,0.00,WUHU216DAVISVP2,2013-06-10 06:10:00,
2013-06-10 02:11:00,66.3,64.5,29.00,SSE,152,1.0,11.0,94,0.00,,,0.00,WUHU216DAVISVP2,2013-06-10 06:11:00,
2013-06-10 02:12:00,66.3,64.8,29.00,SSE,152,1.0,11.0,95,0.00,,,0.00,WUHU216DAVISVP2,2013-06-10 06:12:00,
2013-06-10 02:15:00,66.3,64.8,29.00,South,175,4.0,11.0,95,0.00,,,0.00,WUHU216DAVISVP2,2013-06-10 06:15:00,
2013-06-10 02:17:00,66.2,64.7,29.00,South,175,1.0,11.0,95,0.00,,,0.00,WUHU216DAVISVP2,2013-06-10 06:17:00,
2013-06-10 02:21:00,66.2,64.7,29.00,SSE,149,3.0,8.0,95,0.00,,,0.00,WUHU216DAVISVP2,2013-06-10 06:21:00,
2013-06-10 02:22:00,66.2,64.7,29.00,SSW,197,0.0,8.0,95,0.00,,,0.00,WUHU216DAVISVP2,2013-06-10 06:22:00,
2013-06-10 02:23:00,66.2,64.7,29.00,South,178,0.0,8.0,95,0.00,,,0.00,WUHU216DAVISVP2,2013-06-10 06:23:00,
2013-06-10 02:26:00,66.2,64.7,29.00,South,178,1.0,8.0,95,0.00,,,0.00,WUHU216DAVISVP2,2013-06-10 06:26:00,
2013-06-10 02:27:00,66.2,64.7,28.99,South,178,1.0,8.0,95,0.00,,,0.00,WUHU216DAVISVP2,2013-06-10 06:27:00,
2013-06-10 02:28:00,66.1,64.6,29.00,SSW,197,2.0,7.0,95,0.00,,,0.00,WUHU216DAVISVP2,2013-06-10 06:28:00,
2013-06-10 02:31:00,66.2,64.7,29.00,SSW,207,2.0,7.0,95,0.00,,,0.00,WUHU216DAVISVP2,2013-06-10 06:31:00,
2013-06-10 02:32:00,66.2,64.7,29.00,SSW,210,4.0,7.0,95,0.00,,,0.00,WUHU216DAVISVP2,2013-06-10 06:32:00,
2013-06-10 02:33:00,66.2,64.7,29.00,SW,232,4.0,8.0,95,0.00,,,0.00,WUHU216DAVISVP2,2013-06-10 06:33:00,
2013-06-10 02:37:00,66.1,64.6,29.00,SSE,162,5.0,8.0,95,0.00,,,0.00,WUHU216DAVISVP2,2013-06-10 06:37:00,
2013-06-10 02:38:00,66.1,64.6,29.00,South,181,5.0,8.0,95,0.00,,,0.00,WUHU216DAVISVP2,2013-06-10 06:38:00,
2013-06-10 02:42:00,66.0,64.5,29.01,SSW,197,5.0,9.0,95,0.00,,,0.00,WUHU216DAVISVP2,2013-06-10 06:42:00,
2013-06-10 02:43:00,66.0,64.5,29.01,SSW,213,4.0,9.0,95,0.00,,,0.00,WUHU216DAVISVP2,2013-06-10 06:43:00,
2013-06-10 02:48:00,65.9,64.4,29.00,West,264,7.0,11.0,95,0.00,,,0.00,WUHU216DAVISVP2,2013-06-10 06:48:00,
2013-06-10 02:53:00,65.8,64.3,29.00,West,259,3.0,11.0,95,0.00,,,0.00,WUHU216DAVISVP2,2013-06-10 06:53:00,
2013-06-10 02:54:00,65.8,64.3,29.00,West,272,8.0,11.0,95,0.00,,,0.00,WUHU216DAVISVP2,2013-06-10 06:54:00,
2013-06-10 02:58:00,64.6,62.8,28.99,WSW,253,7.0,11.0,94,0.00,,,0.00,WUHU216DAVISVP2,2013-06-10 06:58:00,
2013-06-10 02:59:00,64.4,62.6,28.99,WSW,254,5.0,11.0,94,0.00,,,0.00,WUHU216DAVISVP2,2013-06-10 06:59:00,
2013-06-10 03:00:00,64.2,62.1,28.99,WSW,256,7.0,11.0,93,0.00,,,0.00,WUHU216DAVISVP2,2013-06-10 07:00:00,
2013-06-10 03:03:00,63.9,62.1,28.99,WSW,251,0.0,11.0,94,0.00,,,0.00,WUHU216DAVISVP2,2013-06-10 07:03:00,
2013-06-10 03:04:00,63.9,62.1,28.98,WSW,251,1.0,11.0,94,0.00,,,0.00,WUHU216DAVISVP2,2013-06-10 07:04:00,
2013-06-10 03:05:00,63.9,62.1,28.98,WSW,251,0.0,10.0,94,0.00,,,0.00,WUHU216DAVISVP2,2013-06-10 07:05:00,
2013-06-10 03:08:00,63.8,62.0,28.98,WSW,251,0.0,10.0,94,0.01,,,0.01,WUHU216DAVISVP2,2013-06-10 07:08:00,
2013-06-10 03:09:00,63.8,62.0,28.98,WSW,251,0.0,10.0,94,0.01,,,0.01,WUHU216DAVISVP2,2013-06-10 07:09:00,
2013-06-10 03:10:00,63.7,61.9,28.98,WSW,251,1.0,10.0,94,0.01,,,0.01,WUHU216DAVISVP2,2013-06-10 07:10:00,
2013-06-10 03:14:00,63.7,61.9,28.98,WSW,251,0.0,10.0,94,0.01,,,0.01,WUHU216DAVISVP2,2013-06-10 07:14:00,
2013-06-10 03:15:00,63.7,61.9,28.98,WSW,251,0.0,10.0,94,0.01,,,0.01,WUHU216DAVISVP2,2013-06-10 07:15:00,
2013-06-10 03:19:00,63.7,61.9,28.98,WSW,251,0.0,10.0,94,0.01,,,0.01,WUHU216DAVISVP2,2013-06-10 07:19:00,
2013-06-10 03:20:00,63.7,61.9,28.98,WSW,251,0.0,7.0,94,0.01,,,0.01,WUHU216DAVISVP2,2013-06-10 07:20:00,
2013-06-10 03:24:00,63.6,61.8,28.97,WSW,251,0.0,2.0,94,0.01,,,0.01,WUHU216DAVISVP2,2013-06-10 07:24:00,
2013-06-10 03:25:00,63.6,61.8,28.98,WSW,251,0.0,2.0,94,0.01,,,0.01,WUHU216DAVISVP2,2013-06-10 07:25:00,
2013-06-10 03:26:00,63.6,61.8,28.98,WSW,251,0.0,2.0,94,0.01,,,0.01,WUHU216DAVISVP2,2013-06-10 07:26:00,
2013-06-10 03:29:00,63.6,61.8,28.98,WSW,251,0.0,2.0,94,0.01,,,0.01,WUHU216DAVISVP2,2013-06-10 07:29:00,
2013-06-10 03:30:00,63.6,61.8,28.98,WSW,251,0.0,2.0,94,0.01,,,0.01,WUHU216DAVISVP2,2013-06-10 07:30:00,
2013-06-10 03:31:00,63.6,61.8,28.98,WSW,251,0.0,2.0,94,0.01,,,0.01,WUHU216DAVISVP2,2013-06-10 07:31:00,
2013-06-10 03:34:00,63.6,61.8,28.97,WSW,251,0.0,1.0,94,0.01,,,0.01,WUHU216DAVISVP2,2013-06-10 07:34:00,
2013-06-10 03:35:00,63.5,61.7,28.97,WSW,251,0.0,1.0,94,0.01,,,0.01,WUHU216DAVISVP2,2013-06-10 07:35:00,
2013-06-10 03:36:00,63.5,61.7,28.97,WSW,251,0.0,1.0,94,0.01,,,0.01,WUHU216DAVISVP2,2013-06-10 07:36:00,
2013-06-10 03:39:00,63.5,62.0,28.98,WSW,250,4.0,4.0,95,0.01,,,0.01,WUHU216DAVISVP2,2013-06-10 07:39:00,
2013-06-10 03:40:00,63.5,62.0,28.98,WSW,250,0.0,4.0,95,0.01,,,0.01,WUHU216DAVISVP2,2013-06-10 07:40:00,
2013-06-10 03:41:00,63.5,61.7,28.98,South,178,5.0,5.0,94,0.01,,,0.01,WUHU216DAVISVP2,2013-06-10 07:41:00,
2013-06-10 03:42:00,63.4,61.6,28.98,South,179,6.0,6.0,94,0.01,,,0.01,WUHU216DAVISVP2,2013-06-10 07:42:00,
2013-06-10 03:45:00,63.4,61.9,28.98,South,181,4.0,9.0,95,0.01,,,0.01,WUHU216DAVISVP2,2013-06-10 07:45:00,
2013-06-10 03:46:00,63.4,61.6,28.98,South,180,2.0,9.0,94,0.01,,,0.01,WUHU216DAVISVP2,2013-06-10 07:46:00,
2013-06-10 03:47:00,63.3,61.5,28.98,South,181,0.0,9.0,94,0.01,,,0.01,WUHU216DAVISVP2,2013-06-10 07:47:00,
2013-06-10 03:50:00,63.3,61.5,28.97,South,181,0.0,9.0,94,0.01,,,0.01,WUHU216DAVISVP2,2013-06-10 07:50:00,
2013-06-10 03:52:00,63.3,61.8,28.98,South,181,2.0,9.0,95,0.01,,,0.01,WUHU216DAVISVP2,2013-06-10 07:52:00,
2013-06-10 03:55:00,63.4,61.9,28.98,South,181,1.0,9.0,95,0.01,,,0.01,WUHU216DAVISVP2,2013-06-10 07:55:00,
2013-06-10 03:57:00,63.4,61.9,28.97,South,181,1.0,9.0,95,0.01,,,0.01,WUHU216DAVISVP2,2013-06-10 07:57:00,
2013-06-10 03:58:00,63.4,61.9,28.97,South,181,1.0,9.0,95,0.01,,,0.01,WUHU216DAVISVP2,2013-06-10 07:58:00,
2013-06-10 04:00:00,63.5,62.0,28.97,South,181,1.0,9.0,95,0.01,,,0.01,WUHU216DAVISVP2,2013-06-10 08:00:00,
2013-06-10 04:02:00,63.6,62.1,28.97,South,181,3.0,8.0,95,0.01,,,0.01,WUHU216DAVISVP2,2013-06-10 08:02:00,
2013-06-10 04:03:00,63.6,62.1,28.97,South,181,2.0,6.0,95,0.01,,,0.01,WUHU216DAVISVP2,2013-06-10 08:03:00,
2013-06-10 04:06:00,63.6,62.1,28.97,South,181,0.0,6.0,95,0.00,,,0.01,WUHU216DAVISVP2,2013-06-10 08:06:00,
2013-06-10 04:07:00,63.6,62.1,28.97,South,181,0.0,6.0,95,0.00,,,0.01,WUHU216DAVISVP2,2013-06-10 08:07:00,
2013-06-10 04:08:00,63.6,62.1,28.97,South,181,0.0,6.0,95,0.00,,,0.01,WUHU216DAVISVP2,2013-06-10 08:08:00,
2013-06-10 04:11:00,63.7,62.2,28.97,South,181,1.0,6.0,95,0.00,,,0.01,WUHU216DAVISVP2,2013-06-10 08:11:00,
2013-06-10 04:12:00,63.7,62.2,28.97,South,181,0.0,6.0,95,0.00,,,0.01,WUHU216DAVISVP2,2013-06-10 08:12:00,
2013-06-10 04:13:00,63.7,62.2,28.97,South,181,0.0,6.0,95,0.00,,,0.01,WUHU216DAVISVP2,2013-06-10 08:13:00,
2013-06-10 04:17:00,63.8,62.3,28.97,South,181,2.0,6.0,95,0.00,,,0.01,WUHU216DAVISVP2,2013-06-10 08:17:00,
2013-06-10 04:18:00,63.8,62.3,28.97,South,181,1.0,4.0,95,0.00,,,0.01,WUHU216DAVISVP2,2013-06-10 08:18:00,
2013-06-10 04:22:00,63.8,62.3,28.96,South,181,0.0,4.0,95,0.00,,,0.01,WUHU216DAVISVP2,2013-06-10 08:22:00,
2013-06-10 04:24:00,63.8,62.3,28.96,South,181,3.0,4.0,95,0.00,,,0.01,WUHU216DAVISVP2,2013-06-10 08:24:00,
2013-06-10 04:27:00,63.8,62.3,28.96,South,181,0.0,4.0,95,0.00,,,0.01,WUHU216DAVISVP2,2013-06-10 08:27:00,
2013-06-10 04:29:00,63.8,62.3,28.96,South,181,0.0,4.0,95,0.00,,,0.01,WUHU216DAVISVP2,2013-06-10 08:29:00,
2013-06-10 04:32:00,63.8,62.3,28.96,South,181,0.0,4.0,95,0.00,,,0.01,WUHU216DAVISVP2,2013-06-10 08:32:00,
2013-06-10 04:33:00,63.8,62.3,28.96,South,181,0.0,4.0,95,0.00,,,0.01,WUHU216DAVISVP2,2013-06-10 08:33:00,
2013-06-10 04:34:00,63.8,62.3,28.96,South,181,0.0,4.0,95,0.00,,,0.01,WUHU216DAVISVP2,2013-06-10 08:34:00,
2013-06-10 04:37:00,63.8,62.3,28.96,South,181,0.0,4.0,95,0.00,,,0.01,WUHU216DAVISVP2,2013-06-10 08:37:00,
2013-06-10 04:38:00,63.9,62.4,28.95,South,181,0.0,4.0,95,0.00,,,0.01,WUHU216DAVISVP2,2013-06-10 08:38:00,
2013-06-10 04:39:00,63.9,62.4,28.95,South,181,0.0,4.0,95,0.00,,,0.01,WUHU216DAVISVP2,2013-06-10 08:39:00,
2013-06-10 04:42:00,63.9,62.4,28.95,South,181,0.0,4.0,95,0.00,,,0.01,WUHU216DAVISVP2,2013-06-10 08:42:00,
2013-06-10 04:43:00,63.9,62.4,28.95,South,181,0.0,2.0,95,0.00,,,0.01,WUHU216DAVISVP2,2013-06-10 08:43:00,
2013-06-10 04:44:00,63.9,62.4,28.95,South,181,0.0,1.0,95,0.00,,,0.01,WUHU216DAVISVP2,2013-06-10 08:44:00,
2013-06-10 04:48:00,63.9,62.4,28.96,South,181,0.0,1.0,95,0.00,,,0.01,WUHU216DAVISVP2,2013-06-10 08:48:00,
2013-06-10 04:49:00,64.0,62.5,28.95,South,181,0.0,1.0,95,0.00,,,0.01,WUHU216DAVISVP2,2013-06-10 08:49:00,
2013-06-10 04:53:00,64.0,62.5,28.95,South,181,0.0,1.0,95,0.00,,,0.01,WUHU216DAVISVP2,2013-06-10 08:53:00,
2013-06-10 04:54:00,64.0,62.5,28.95,South,181,0.0,1.0,95,0.00,,,0.01,WUHU216DAVISVP2,2013-06-10 08:54:00,
2013-06-10 04:55:00,64.0,62.5,28.95,South,181,0.0,1.0,95,0.00,,,0.01,WUHU216DAVISVP2,2013-06-10 08:55:00,
2013-06-10 04:58:00,64.0,62.5,28.95,South,181,0.0,1.0,95,0.00,,,0.01,WUHU216DAVISVP2,2013-06-10 08:58:00,
2013-06-10 04:59:00,64.0,62.5,28.95,South,181,0.0,1.0,95,0.00,,,0.01,WUHU216DAVISVP2,2013-06-10 08:59:00,
2013-06-10 05:00:00,64.0,62.5,28.95,South,181,0.0,1.0,95,0.00,,,0.01,WUHU216DAVISVP2,2013-06-10 09:00:00,
2013-06-10 05:03:00,64.1,62.6,28.95,South,181,0.0,1.0,95,0.00,,,0.01,WUHU216DAVISVP2,2013-06-10 09:03:00,
2013-06-10 05:04:00,64.1,62.9,28.95,South,181,0.0,1.0,96,0.00,,,0.01,WUHU216DAVISVP2,2013-06-10 09:04:00,
2013-06-10 05:05:00,64.1,62.9,28.95,South,181,0.0,0.0,96,0.00,,,0.01,WUHU216DAVISVP2,2013-06-10 09:05:00,
2013-06-10 05:08:00,64.2,63.0,28.95,South,181,0.0,2.0,96,0.00,,,0.01,WUHU216DAVISVP2,2013-06-10 09:08:00,
2013-06-10 05:09:00,64.3,63.1,28.95,South,181,0.0,2.0,96,0.00,,,0.01,WUHU216DAVISVP2,2013-06-10 09:09:00,
2013-06-10 05:10:00,64.3,63.1,28.95,South,181,0.0,2.0,96,0.00,,,0.01,WUHU216DAVISVP2,2013-06-10 09:10:00,
2013-06-10 05:13:00,64.3,63.1,28.95,South,181,0.0,2.0,96,0.00,,,0.01,WUHU216DAVISVP2,2013-06-10 09:13:00,
2013-06-10 05:14:00,64.3,63.1,28.95,South,181,0.0,2.0,96,0.00,,,0.01,WUHU216DAVISVP2,2013-06-10 09:14:00,
2013-06-10 05:15:00,64.3,63.1,28.95,South,181,0.0,2.0,96,0.00,,,0.01,WUHU216DAVISVP2,2013-06-10 09:15:00,
2013-06-10 05:19:00,64.4,63.2,28.94,South,181,0.0,2.0,96,0.00,,,0.01,WUHU216DAVISVP2,2013-06-10 09:19:00,
2013-06-10 05:20:00,64.4,63.2,28.94,South,181,0.0,2.0,96,0.00,,,0.01,WUHU216DAVISVP2,2013-06-10 09:20:00,
2013-06-10 05:21:00,64.4,63.2,28.94,South,181,0.0,2.0,96,0.00,,,0.01,WUHU216DAVISVP2,2013-06-10 09:21:00,
2013-06-10 05:24:00,64.5,63.3,28.95,South,181,0.0,2.0,96,0.00,,,0.01,WUHU216DAVISVP2,2013-06-10 09:24:00,
2013-06-10 05:25:00,64.5,63.3,28.95,South,181,0.0,2.0,96,0.00,,,0.01,WUHU216DAVISVP2,2013-06-10 09:25:00,
2013-06-10 05:26:00,64.5,63.3,28.94,South,181,0.0,2.0,96,0.00,,,0.01,WUHU216DAVISVP2,2013-06-10 09:26:00,
2013-06-10 05:29:00,64.5,63.3,28.94,South,181,0.0,1.0,96,0.00,,,0.01,WUHU216DAVISVP2,2013-06-10 09:29:00,
2013-06-10 05:30:00,64.6,63.4,28.94,South,181,0.0,1.0,96,0.00,,,0.01,WUHU216DAVISVP2,2013-06-10 09:30:00,
2013-06-10 05:31:00,64.6,63.4,28.94,South,181,0.0,1.0,96,0.00,,,0.01,WUHU216DAVISVP2,2013-06-10 09:31:00,
2013-06-10 05:34:00,64.6,63.4,28.94,South,181,0.0,1.0,96,0.00,,,0.01,WUHU216DAVISVP2,2013-06-10 09:34:00,
2013-06-10 05:35:00,64.6,63.4,28.94,South,181,0.0,1.0,96,0.00,,,0.01,WUHU216DAVISVP2,2013-06-10 09:35:00,
2013-06-10 05:36:00,64.7,63.5,28.94,South,181,0.0,1.0,96,0.00,,,0.01,WUHU216DAVISVP2,2013-06-10 09:36:00,
2013-06-10 05:39:00,64.7,63.5,28.94,South,181,1.0,2.0,96,0.00,,,0.01,WUHU216DAVISVP2,2013-06-10 09:39:00,
2013-06-10 05:40:00,64.8,63.6,28.94,South,181,0.0,2.0,96,0.00,,,0.01,WUHU216DAVISVP2,2013-06-10 09:40:00,
2013-06-10 05:42:00,64.8,63.6,28.94,South,181,0.0,2.0,96,0.00,,,0.01,WUHU216DAVISVP2,2013-06-10 09:42:00,
2013-06-10 05:44:00,64.9,63.7,28.94,South,181,1.0,5.0,96,0.00,,,0.01,WUHU216DAVISVP2,2013-06-10 09:44:00,
2013-06-10 05:45:00,64.9,63.7,28.95,South,181,1.0,5.0,96,0.00,,,0.01,WUHU216DAVISVP2,2013-06-10 09:45:00,
2013-06-10 05:46:00,64.9,63.7,28.95,South,181,0.0,5.0,96,0.00,,,0.01,WUHU216DAVISVP2,2013-06-10 09:46:00,
2013-06-10 05:47:00,64.9,63.7,28.94,South,181,1.0,5.0,96,0.00,,,0.01,WUHU216DAVISVP2,2013-06-10 09:47:00,
2013-06-10 05:49:00,64.9,63.7,28.94,South,181,0.0,5.0,96,0.00,,,0.01,WUHU216DAVISVP2,2013-06-10 09:49:00,
2013-06-10 05:50:00,64.9,63.7,28.94,South,181,0.0,5.0,96,0.00,,,0.01,WUHU216DAVISVP2,2013-06-10 09:50:00,
2013-06-10 05:51:00,64.9,63.7,28.94,South,181,1.0,5.0,96,0.00,,,0.01,WUHU216DAVISVP2,2013-06-10 09:51:00,
2013-06-10 05:52:00,65.0,63.8,28.94,South,181,1.0,5.0,96,0.00,,,0.01,WUHU216DAVISVP2,2013-06-10 09:52:00,
2013-06-10 05:54:00,65.0,63.8,28.94,South,181,0.0,5.0,96,0.00,,,0.01,WUHU216DAVISVP2,2013-06-10 09:54:00,
2013-06-10 05:55:00,65.0,63.8,28.94,South,181,0.0,5.0,96,0.00,,,0.01,WUHU216DAVISVP2,2013-06-10 09:55:00,
2013-06-10 05:56:00,65.0,63.8,28.93,South,181,0.0,5.0,96,0.00,,,0.01,WUHU216DAVISVP2,2013-06-10 09:56:00,
2013-06-10 05:58:00,65.0,63.8,28.94,South,181,1.0,5.0,96,0.00,,,0.01,WUHU216DAVISVP2,2013-06-10 09:58:00,
2013-06-10 06:00:00,65.0,63.8,28.94,South,181,1.0,5.0,96,0.00,,,0.01,WUHU216DAVISVP2,2013-06-10 10:00:00,
2013-06-10 06:01:00,65.0,63.8,28.94,South,181,1.0,5.0,96,0.00,,,0.01,WUHU216DAVISVP2,2013-06-10 10:01:00,
2013-06-10 06:03:00,65.0,63.8,28.94,South,181,0.0,5.0,96,0.00,,,0.01,WUHU216DAVISVP2,2013-06-10 10:03:00,
2013-06-10 06:05:00,65.0,63.8,28.94,South,181,0.0,2.0,96,0.00,,,0.01,WUHU216DAVISVP2,2013-06-10 10:05:00,
2013-06-10 06:07:00,65.0,63.8,28.94,South,181,4.0,5.0,96,0.00,,,0.01,WUHU216DAVISVP2,2013-06-10 10:07:00,
2013-06-10 06:08:00,65.1,63.9,28.94,South,181,1.0,5.0,96,0.00,,,0.01,WUHU216DAVISVP2,2013-06-10 10:08:00,
2013-06-10 06:10:00,65.1,63.9,28.94,South,181,4.0,5.0,96,0.00,,,0.01,WUHU216DAVISVP2,2013-06-10 10:10:00,
2013-06-10 06:11:00,65.1,63.9,28.94,South,181,0.0,5.0,96,0.00,,,0.01,WUHU216DAVISVP2,2013-06-10 10:11:00,
2013-06-10 06:12:00,65.1,63.9,28.94,South,181,0.0,5.0,96,0.00,,,0.01,WUHU216DAVISVP2,2013-06-10 10:12:00,
2013-06-10 06:13:00,65.1,63.9,28.95,South,181,0.0,5.0,96,0.00,,,0.01,WUHU216DAVISVP2,2013-06-10 10:13:00,
2013-06-10 06:14:00,65.1,63.9,28.94,SSW,204,0.0,6.0,96,0.00,,,0.01,WUHU216DAVISVP2,2013-06-10 10:14:00,
2013-06-10 06:15:00,65.1,63.9,28.94,South,177,3.0,6.0,96,0.00,,,0.01,WUHU216DAVISVP2,2013-06-10 10:15:00,
2013-06-10 06:16:00,65.1,63.9,28.94,South,185,1.0,6.0,96,0.00,,,0.01,WUHU216DAVISVP2,2013-06-10 10:16:00,
2013-06-10 06:17:00,65.1,63.9,28.94,South,185,2.0,6.0,96,0.00,,,0.01,WUHU216DAVISVP2,2013-06-10 10:17:00,
2013-06-10 06:18:00,65.1,63.9,28.94,South,185,0.0,6.0,96,0.00,,,0.01,WUHU216DAVISVP2,2013-06-10 10:18:00,
2013-06-10 06:19:00,65.1,63.9,28.94,South,185,1.0,6.0,96,0.00,,,0.01,WUHU216DAVISVP2,2013-06-10 10:19:00,
2013-06-10 06:21:00,65.1,63.9,28.94,South,185,0.0,6.0,96,0.00,,,0.01,WUHU216DAVISVP2,2013-06-10 10:21:00,
2013-06-10 06:22:00,65.1,63.9,28.94,South,185,0.0,6.0,96,0.00,,,0.01,WUHU216DAVISVP2,2013-06-10 10:22:00,
2013-06-10 06:23:00,65.1,63.9,28.94,South,185,0.0,6.0,96,0.00,,,0.01,WUHU216DAVISVP2,2013-06-10 10:23:00,
2013-06-10 06:24:00,65.1,63.9,28.94,South,185,0.0,6.0,96,0.00,,,0.01,WUHU216DAVISVP2,2013-06-10 10:24:00,
2013-06-10 06:26:00,65.1,63.9,28.94,South,185,0.0,6.0,96,0.00,,,0.01,WUHU216DAVISVP2,2013-06-10 10:26:00,
2013-06-10 06:27:00,65.1,63.9,28.94,South,185,0.0,6.0,96,0.00,,,0.01,WUHU216DAVISVP2,2013-06-10 10:27:00,
2013-06-10 06:29:00,65.2,64.0,28.95,SSW,199,4.0,6.0,96,0.00,,,0.01,WUHU216DAVISVP2,2013-06-10 10:29:00,
2013-06-10 06:31:00,65.1,63.9,28.95,SSW,199,1.0,6.0,96,0.00,,,0.01,WUHU216DAVISVP2,2013-06-10 10:31:00,
2013-06-10 06:32:00,65.1,63.9,28.95,South,177,6.0,6.0,96,0.00,,,0.01,WUHU216DAVISVP2,2013-06-10 10:32:00,
2013-06-10 06:34:00,65.2,64.0,28.95,SSW,195,0.0,8.0,96,0.00,,,0.01,WUHU216DAVISVP2,2013-06-10 10:34:00,
2013-06-10 06:36:00,65.2,64.0,28.95,SSW,195,1.0,8.0,96,0.00,,,0.01,WUHU216DAVISVP2,2013-06-10 10:36:00,
2013-06-10 06:37:00,65.2,64.0,28.95,SSW,195,0.0,8.0,96,0.00,,,0.01,WUHU216DAVISVP2,2013-06-10 10:37:00,
2013-06-10 06:39:00,65.2,64.0,28.95,SSW,197,1.0,8.0,96,0.01,,,0.02,WUHU216DAVISVP2,2013-06-10 10:39:00,
2013-06-10 06:40:00,65.2,64.0,28.95,SSW,202,0.0,8.0,96,0.01,,,0.02,WUHU216DAVISVP2,2013-06-10 10:40:00,
2013-06-10 06:41:00,65.2,64.0,28.95,SSW,208,2.0,8.0,96,0.01,,,0.02,WUHU216DAVISVP2,2013-06-10 10:41:00,
2013-06-10 06:42:00,65.2,64.0,28.95,SW,214,3.0,8.0,96,0.01,,,0.02,WUHU216DAVISVP2,2013-06-10 10:42:00,
2013-06-10 06:43:00,65.2,64.0,28.95,SW,219,3.0,8.0,96,0.01,,,0.02,WUHU216DAVISVP2,2013-06-10 10:43:00,
2013-06-10 06:44:00,65.2,64.0,28.95,SW,221,5.0,9.0,96,0.01,,,0.02,WUHU216DAVISVP2,2013-06-10 10:44:00,
2013-06-10 06:45:00,65.2,64.0,28.96,SW,226,4.0,9.0,96,0.01,,,0.02,WUHU216DAVISVP2,2013-06-10 10:45:00,
2013-06-10 06:47:00,65.2,64.0,28.96,WSW,237,7.0,9.0,96,0.01,,,0.02,WUHU216DAVISVP2,2013-06-10 10:47:00,
2013-06-10 06:48:00,65.2,64.0,28.96,SSW,208,3.0,11.0,96,0.01,,,0.02,WUHU216DAVISVP2,2013-06-10 10:48:00,
2013-06-10 06:49:00,65.2,64.0,28.96,SSW,204,1.0,11.0,96,0.01,,,0.02,WUHU216DAVISVP2,2013-06-10 10:49:00,
2013-06-10 06:50:00,65.2,64.0,28.96,SSW,203,4.0,11.0,96,0.01,,,0.02,WUHU216DAVISVP2,2013-06-10 10:50:00,
2013-06-10 06:52:00,65.2,64.0,28.96,SW,226,4.0,11.0,96,0.01,,,0.02,WUHU216DAVISVP2,2013-06-10 10:52:00,
2013-06-10 06:53:00,65.2,64.0,28.96,SW,214,4.0,11.0,96,0.01,,,0.02,WUHU216DAVISVP2,2013-06-10 10:53:00,
2013-06-10 06:55:00,65.2,64.0,28.95,SSW,210,0.0,11.0,96,0.01,,,0.02,WUHU216DAVISVP2,2013-06-10 10:55:00,
2013-06-10 06:57:00,65.2,64.0,28.95,SSW,193,1.0,11.0,96,0.01,,,0.02,WUHU216DAVISVP2,2013-06-10 10:57:00,
2013-06-10 06:58:00,65.2,64.0,28.95,SSW,206,1.0,11.0,96,0.01,,,0.02,WUHU216DAVISVP2,2013-06-10 10:58:00,
2013-06-10 07:00:00,65.2,64.0,28.95,SW,224,4.0,11.0,96,0.01,,,0.02,WUHU216DAVISVP2,2013-06-10 11:00:00,
2013-06-10 07:02:00,65.1,63.9,28.95,SW,233,1.0,11.0,96,0.01,,,0.02,WUHU216DAVISVP2,2013-06-10 11:02:00,
2013-06-10 07:03:00,65.1,63.9,28.95,SW,218,5.0,11.0,96,0.01,,,0.02,WUHU216DAVISVP2,2013-06-10 11:03:00,
2013-06-10 07:05:00,65.1,63.9,28.95,SSW,210,4.0,11.0,96,0.01,,,0.02,WUHU216DAVISVP2,2013-06-10 11:05:00,
2013-06-10 07:08:00,65.0,63.8,28.96,WSW,239,5.0,10.0,96,0.01,,,0.02,WUHU216DAVISVP2,2013-06-10 11:08:00,
2013-06-10 07:10:00,65.0,63.8,28.96,SSW,205,0.0,10.0,96,0.01,,,0.02,WUHU216DAVISVP2,2013-06-10 11:10:00,
2013-06-10 07:13:00,65.0,63.8,28.96,WSW,239,5.0,12.0,96,0.01,,,0.02,WUHU216DAVISVP2,2013-06-10 11:13:00,
2013-06-10 07:14:00,65.0,63.8,28.96,WSW,241,1.0,12.0,96,0.01,,,0.02,WUHU216DAVISVP2,2013-06-10 11:14:00,
2013-06-10 07:15:00,65.0,63.8,28.96,South,188,1.0,12.0,96,0.01,,,0.02,WUHU216DAVISVP2,2013-06-10 11:15:00,
2013-06-10 07:16:00,65.0,63.8,28.95,WSW,254,5.0,12.0,96,0.01,,,0.02,WUHU216DAVISVP2,2013-06-10 11:16:00,
2013-06-10 07:18:00,65.0,63.8,28.95,WSW,247,5.0,12.0,96,0.01,,,0.02,WUHU216DAVISVP2,2013-06-10 11:18:00,
2013-06-10 07:19:00,65.0,63.8,28.95,West,260,6.0,12.0,96,0.01,,,0.02,WUHU216DAVISVP2,2013-06-10 11:19:00,
2013-06-10 07:20:00,65.0,63.8,28.95,WSW,246,8.0,12.0,96,0.01,,,0.02,WUHU216DAVISVP2,2013-06-10 11:20:00,
2013-06-10 07:21:00,65.0,63.8,28.96,WSW,239,6.0,12.0,96,0.01,,,0.02,WUHU216DAVISVP2,2013-06-10 11:21:00,
2013-06-10 07:24:00,65.0,63.8,28.96,SSW,206,0.0,12.0,96,0.01,,,0.02,WUHU216DAVISVP2,2013-06-10 11:24:00,
2013-06-10 07:25:00,65.0,63.8,28.96,SW,218,3.0,13.0,96,0.01,,,0.02,WUHU216DAVISVP2,2013-06-10 11:25:00,
2013-06-10 07:26:00,65.0,63.8,28.96,South,177,4.0,13.0,96,0.01,,,0.02,WUHU216DAVISVP2,2013-06-10 11:26:00,
2013-06-10 07:29:00,65.0,63.8,28.96,SW,232,8.0,13.0,96,0.01,,,0.02,WUHU216DAVISVP2,2013-06-10 11:29:00,
2013-06-10 07:30:00,65.0,63.8,28.97,WSW,240,7.0,13.0,96,0.01,,,0.02,WUHU216DAVISVP2,2013-06-10 11:30:00,
2013-06-10 07:31:00,65.0,63.8,28.96,SSW,193,2.0,13.0,96,0.01,,,0.02,WUHU216DAVISVP2,2013-06-10 11:31:00,
2013-06-10 07:34:00,65.0,63.8,28.96,WSW,240,10.0,13.0,96,0.01,,,0.02,WUHU216DAVISVP2,2013-06-10 11:34:00,
2013-06-10 07:35:00,65.0,63.8,28.96,SW,222,1.0,13.0,96,0.01,,,0.02,WUHU216DAVISVP2,2013-06-10 11:35:00,
2013-06-10 07:37:00,65.0,63.8,28.96,WSW,257,6.0,13.0,96,0.01,,,0.02,WUHU216DAVISVP2,2013-06-10 11:37:00,
2013-06-10 07:39:00,65.0,63.8,28.96,South,189,0.0,13.0,96,0.00,,,0.02,WUHU216DAVISVP2,2013-06-10 11:39:00,
2013-06-10 07:40:00,65.0,63.8,28.96,SW,227,4.0,13.0,96,0.00,,,0.02,WUHU216DAVISVP2,2013-06-10 11:40:00,
2013-06-10 07:42:00,65.0,63.5,28.96,SW,230,5.0,13.0,95,0.00,,,0.02,WUHU216DAVISVP2,2013-06-10 11:42:00,
2013-06-10 07:44:00,65.0,63.5,28.96,South,179,7.0,10.0,95,0.00,,,0.02,WUHU216DAVISVP2,2013-06-10 11:44:00,
2013-06-10 07:45:00,65.0,63.5,28.96,SW,214,3.0,10.0,95,0.00,,,0.02,WUHU216DAVISVP2,2013-06-10 11:45:00,
2013-06-10 07:47:00,65.0,63.5,28.96,SSW,204,2.0,10.0,95,0.00,,,0.02,WUHU216DAVISVP2,2013-06-10 11:47:00,
2013-06-10 07:49:00,65.0,63.5,28.96,South,191,4.0,10.0,95,0.00,,,0.02,WUHU216DAVISVP2,2013-06-10 11:49:00,
2013-06-10 07:50:00,64.9,63.4,28.96,SW,228,5.0,11.0,95,0.00,,,0.02,WUHU216DAVISVP2,2013-06-10 11:50:00,
2013-06-10 07:52:00,65.0,63.5,28.97,SSW,201,4.0,11.0,95,0.00,,,0.02,WUHU216DAVISVP2,2013-06-10 11:52:00,
2013-06-10 07:54:00,65.0,63.5,28.97,West,262,2.0,11.0,95,0.00,,,0.02,WUHU216DAVISVP2,2013-06-10 11:54:00,
2013-06-10 07:55:00,65.0,63.5,28.97,West,262,6.0,11.0,95,0.00,,,0.02,WUHU216DAVISVP2,2013-06-10 11:55:00,
2013-06-10 07:56:00,65.0,63.5,28.96,WSW,247,9.0,11.0,95,0.00,,,0.02,WUHU216DAVISVP2,2013-06-10 11:56:00,
2013-06-10 07:57:00,65.0,63.5,28.96,WSW,243,4.0,11.0,95,0.00,,,0.02,WUHU216DAVISVP2,2013-06-10 11:57:00,
2013-06-10 07:59:00,65.0,63.5,28.96,WSW,242,7.0,12.0,95,0.00,,,0.02,WUHU216DAVISVP2,2013-06-10 11:59:00,
2013-06-10 08:00:00,65.1,63.6,28.96,WSW,247,9.0,12.0,95,0.00,,,0.02,WUHU216DAVISVP2,2013-06-10 12:00:00,
2013-06-10 08:01:00,65.1,63.6,28.96,WSW,256,6.0,12.0,95,0.00,,,0.02,WUHU216DAVISVP2,2013-06-10 12:01:00,
2013-06-10 08:02:00,65.1,63.6,28.96,WSW,253,8.0,12.0,95,0.00,,,0.02,WUHU216DAVISVP2,2013-06-10 12:02:00,
2013-06-10 08:03:00,65.1,63.6,28.96,WSW,237,5.0,12.0,95,0.00,,,0.02,WUHU216DAVISVP2,2013-06-10 12:03:00,
2013-06-10 08:04:00,65.2,63.7,28.96,WSW,242,5.0,12.0,95,0.00,,,0.02,WUHU216DAVISVP2,2013-06-10 12:04:00,
2013-06-10 08:05:00,65.2,63.7,28.96,SSW,204,2.0,12.0,95,0.00,,,0.02,WUHU216DAVISVP2,2013-06-10 12:05:00,
2013-06-10 08:07:00,65.2,63.7,28.96,WSW,251,7.0,14.0,95,0.00,,,0.02,WUHU216DAVISVP2,2013-06-10 12:07:00,
2013-06-10 08:08:00,65.2,63.7,28.96,WSW,241,10.0,14.0,95,0.00,,,0.02,WUHU216DAVISVP2,2013-06-10 12:08:00,
2013-06-10 08:09:00,65.2,63.7,28.96,SSW,204,2.0,14.0,95,0.00,,,0.02,WUHU216DAVISVP2,2013-06-10 12:09:00,
2013-06-10 08:10:00,65.3,63.8,28.96,SW,221,3.0,14.0,95,0.00,,,0.02,WUHU216DAVISVP2,2013-06-10 12:10:00,
2013-06-10 08:12:00,65.3,63.8,28.97,SW,227,5.0,14.0,95,0.00,,,0.02,WUHU216DAVISVP2,2013-06-10 12:12:00,
2013-06-10 08:13:00,65.3,63.8,28.97,SW,217,5.0,14.0,95,0.00,,,0.02,WUHU216DAVISVP2,2013-06-10 12:13:00,
2013-06-10 08:15:00,65.3,63.8,28.97,WSW,239,4.0,14.0,95,0.00,,,0.02,WUHU216DAVISVP2,2013-06-10 12:15:00,
2013-06-10 08:17:00,65.3,63.8,28.97,SSW,207,2.0,14.0,95,0.00,,,0.02,WUHU216DAVISVP2,2013-06-10 12:17:00,
2013-06-10 08:18:00,65.3,63.8,28.97,SSW,210,2.0,14.0,95,0.00,,,0.02,WUHU216DAVISVP2,2013-06-10 12:18:00,
2013-06-10 08:20:00,65.3,63.8,28.96,SW,223,1.0,15.0,95,0.00,,,0.02,WUHU216DAVISVP2,2013-06-10 12:20:00,
2013-06-10 08:21:00,65.3,63.8,28.97,SSW,199,0.0,15.0,95,0.00,,,0.02,WUHU216DAVISVP2,2013-06-10 12:21:00,
2013-06-10 08:22:00,65.3,63.8,28.96,SSW,195,2.0,15.0,95,0.00,,,0.02,WUHU216DAVISVP2,2013-06-10 12:22:00,
2013-06-10 08:23:00,65.3,63.8,28.96,WSW,249,5.0,15.0,95,0.00,,,0.02,WUHU216DAVISVP2,2013-06-10 12:23:00,
2013-06-10 08:25:00,65.3,63.8,28.96,WSW,247,7.0,15.0,95,0.00,,,0.02,WUHU216DAVISVP2,2013-06-10 12:25:00,
2013-06-10 08:26:00,65.3,63.8,28.96,WSW,245,7.0,15.0,95,0.00,,,0.02,WUHU216DAVISVP2,2013-06-10 12:26:00,
2013-06-10 08:27:00,65.4,63.9,28.97,WSW,237,7.0,15.0,95,0.00,,,0.02,WUHU216DAVISVP2,2013-06-10 12:27:00,
2013-06-10 08:28:00,65.4,63.9,28.97,WSW,245,5.0,15.0,95,0.00,,,0.02,WUHU216DAVISVP2,2013-06-10 12:28:00,
2013-06-10 08:29:00,65.3,63.8,28.96,WSW,240,5.0,15.0,95,0.00,,,0.02,WUHU216DAVISVP2,2013-06-10 12:29:00,
2013-06-10 08:31:00,65.4,63.9,28.97,WSW,239,12.0,15.0,95,0.00,,,0.02,WUHU216DAVISVP2,2013-06-10 12:31:00,
2013-06-10 08:32:00,65.4,63.9,28.97,West,262,6.0,15.0,95,0.00,,,0.02,WUHU216DAVISVP2,2013-06-10 12:32:00,
2013-06-10 08:33:00,65.4,63.9,28.97,WSW,252,10.0,15.0,95,0.00,,,0.02,WUHU216DAVISVP2,2013-06-10 12:33:00,
2013-06-10 08:34:00,65.4,63.9,28.97,WSW,248,7.0,15.0,95,0.00,,,0.02,WUHU216DAVISVP2,2013-06-10 12:34:00,
2013-06-10 08:36:00,65.4,63.9,28.97,SW,216,1.0,15.0,95,0.00,,,0.02,WUHU216DAVISVP2,2013-06-10 12:36:00,
2013-06-10 08:37:00,65.4,63.9,28.97,West,261,5.0,15.0,95,0.00,,,0.02,WUHU216DAVISVP2,2013-06-10 12:37:00,
2013-06-10 08:38:00,65.4,63.9,28.97,WSW,248,5.0,15.0,95,0.00,,,0.02,WUHU216DAVISVP2,2013-06-10 12:38:00,
2013-06-10 08:39:00,65.4,63.9,28.97,WSW,249,9.0,15.0,95,0.00,,,0.02,WUHU216DAVISVP2,2013-06-10 12:39:00,
2013-06-10 08:41:00,65.4,63.9,28.97,West,260,6.0,15.0,95,0.00,,,0.02,WUHU216DAVISVP2,2013-06-10 12:41:00,
2013-06-10 08:42:00,65.4,63.9,28.97,WSW,239,5.0,15.0,95,0.00,,,0.02,WUHU216DAVISVP2,2013-06-10 12:42:00,
2013-06-10 08:43:00,65.5,64.0,28.97,WSW,251,5.0,15.0,95,0.00,,,0.02,WUHU216DAVISVP2,2013-06-10 12:43:00,
2013-06-10 08:44:00,65.5,64.0,28.97,WSW,251,5.0,15.0,95,0.00,,,0.02,WUHU216DAVISVP2,2013-06-10 12:44:00,
2013-06-10 08:47:00,65.5,64.0,28.97,WSW,255,7.0,15.0,95,0.00,,,0.02,WUHU216DAVISVP2,2013-06-10 12:47:00,
2013-06-10 08:48:00,65.5,64.0,28.97,WSW,239,5.0,14.0,95,0.00,,,0.02,WUHU216DAVISVP2,2013-06-10 12:48:00,
2013-06-10 08:50:00,65.5,64.0,28.97,SSW,210,5.0,13.0,95,0.00,,,0.02,WUHU216DAVISVP2,2013-06-10 12:50:00,
2013-06-10 08:52:00,65.6,64.1,28.97,WSW,255,4.0,13.0,95,0.00,,,0.02,WUHU216DAVISVP2,2013-06-10 12:52:00,
2013-06-10 08:53:00,65.6,64.1,28.97,WSW,255,3.0,13.0,95,0.00,,,0.02,WUHU216DAVISVP2,2013-06-10 12:53:00,
2013-06-10 08:55:00,65.6,64.1,28.97,WSW,253,6.0,13.0,95,0.00,,,0.02,WUHU216DAVISVP2,2013-06-10 12:55:00,
2013-06-10 08:57:00,65.7,64.2,28.97,WSW,250,4.0,13.0,95,0.00,,,0.02,WUHU216DAVISVP2,2013-06-10 12:57:00,
2013-06-10 08:58:00,65.7,64.2,28.97,WSW,250,5.0,13.0,95,0.00,,,0.02,WUHU216DAVISVP2,2013-06-10 12:58:00,
2013-06-10 09:00:00,65.7,64.2,28.97,West,269,7.0,11.0,95,0.00,,,0.02,WUHU216DAVISVP2,2013-06-10 13:00:00,
2013-06-10 09:03:00,65.8,64.3,28.97,WSW,245,10.0,12.0,95,0.00,,,0.02,WUHU216DAVISVP2,2013-06-10 13:03:00,
2013-06-10 09:04:00,65.7,63.9,28.97,WSW,247,6.0,12.0,94,0.00,,,0.02,WUHU216DAVISVP2,2013-06-10 13:04:00,
2013-06-10 09:05:00,65.8,64.0,28.97,West,274,6.0,13.0,94,0.00,,,0.02,WUHU216DAVISVP2,2013-06-10 13:05:00,
2013-06-10 09:08:00,65.8,64.0,28.97,West,259,7.0,13.0,94,0.00,,,0.02,WUHU216DAVISVP2,2013-06-10 13:08:00,
2013-06-10 09:09:00,65.8,64.0,28.97,WSW,248,7.0,13.0,94,0.00,,,0.02,WUHU216DAVISVP2,2013-06-10 13:09:00,
2013-06-10 09:11:00,65.9,64.1,28.97,West,261,8.0,13.0,94,0.00,,,0.02,WUHU216DAVISVP2,2013-06-10 13:11:00,
2013-06-10 09:13:00,65.9,64.1,28.97,SW,236,12.0,14.0,94,0.00,,,0.02,WUHU216DAVISVP2,2013-06-10 13:13:00,
2013-06-10 09:14:00,65.9,64.1,28.97,WSW,251,8.0,16.0,94,0.00,,,0.02,WUHU216DAVISVP2,2013-06-10 13:14:00,
2013-06-10 09:16:00,65.9,64.1,28.97,WSW,248,10.0,16.0,94,0.00,,,0.02,WUHU216DAVISVP2,2013-06-10 13:16:00,
2013-06-10 09:18:00,65.9,64.1,28.97,WSW,243,13.0,16.0,94,0.00,,,0.02,WUHU216DAVISVP2,2013-06-10 13:18:00,
2013-06-10 09:19:00,65.9,64.1,28.97,WSW,246,12.0,16.0,94,0.00,,,0.02,WUHU216DAVISVP2,2013-06-10 13:19:00,
2013-06-10 09:21:00,65.9,64.1,28.97,WSW,243,9.0,16.0,94,0.00,,,0.02,WUHU216DAVISVP2,2013-06-10 13:21:00,
2013-06-10 09:23:00,65.9,64.1,28.97,SW,227,7.0,16.0,94,0.00,,,0.02,WUHU216DAVISVP2,2013-06-10 13:23:00,
2013-06-10 09:24:00,65.9,64.1,28.97,SSW,209,4.0,16.0,94,0.00,,,0.02,WUHU216DAVISVP2,2013-06-10 13:24:00,
2013-06-10 09:27:00,66.1,64.3,28.97,WSW,253,6.0,16.0,94,0.00,,,0.02,WUHU216DAVISVP2,2013-06-10 13:27:00,
2013-06-10 09:28:00,66.2,64.4,28.97,SW,236,12.0,16.0,94,0.00,,,0.02,WUHU216DAVISVP2,2013-06-10 13:28:00,
2013-06-10 09:29:00,66.2,64.4,28.97,WSW,242,8.0,16.0,94,0.00,,,0.02,WUHU216DAVISVP2,2013-06-10 13:29:00,
2013-06-10 09:32:00,66.4,64.6,28.96,West,278,10.0,16.0,94,0.00,,,0.02,WUHU216DAVISVP2,2013-06-10 13:32:00,
2013-06-10 09:33:00,66.4,64.3,28.97,WSW,252,10.0,16.0,93,0.00,,,0.02,WUHU216DAVISVP2,2013-06-10 13:33:00,
2013-06-10 09:34:00,66.4,64.3,28.97,WSW,253,10.0,16.0,93,0.00,,,0.02,WUHU216DAVISVP2,2013-06-10 13:34:00,
2013-06-10 09:37:00,66.4,64.3,28.97,West,270,7.0,16.0,93,0.00,,,0.02,WUHU216DAVISVP2,2013-06-10 13:37:00,
2013-06-10 09:38:00,66.5,64.4,28.97,WSW,258,4.0,16.0,93,0.00,,,0.02,WUHU216DAVISVP2,2013-06-10 13:38:00,
2013-06-10 09:39:00,66.5,64.4,28.97,WSW,258,5.0,16.0,93,0.00,,,0.02,WUHU216DAVISVP2,2013-06-10 13:39:00,
2013-06-10 09:42:00,66.6,64.5,28.96,West,268,6.0,16.0,93,0.00,,,0.02,WUHU216DAVISVP2,2013-06-10 13:42:00,
2013-06-10 09:44:00,66.6,64.5,28.96,WSW,244,10.0,16.0,93,0.00,,,0.02,WUHU216DAVISVP2,2013-06-10 13:44:00,
2013-06-10 09:47:00,66.7,64.6,28.96,WSW,253,1.0,13.0,93,0.00,,,0.02,WUHU216DAVISVP2,2013-06-10 13:47:00,
2013-06-10 09:49:00,66.8,64.7,28.96,WSW,253,4.0,13.0,93,0.00,,,0.02,WUHU216DAVISVP2,2013-06-10 13:49:00,
2013-06-10 09:50:00,66.8,64.7,28.96,West,260,7.0,13.0,93,0.00,,,0.02,WUHU216DAVISVP2,2013-06-10 13:50:00,
2013-06-10 09:53:00,66.9,64.8,28.96,West,266,8.0,13.0,93,0.00,,,0.02,WUHU216DAVISVP2,2013-06-10 13:53:00,
2013-06-10 09:54:00,67.0,64.6,28.97,WSW,242,12.0,14.0,92,0.00,,,0.02,WUHU216DAVISVP2,2013-06-10 13:54:00,
2013-06-10 09:55:00,67.0,64.6,28.97,WSW,253,7.0,14.0,92,0.00,,,0.02,WUHU216DAVISVP2,2013-06-10 13:55:00,
2013-06-10 09:58:00,67.2,64.8,28.97,West,260,12.0,16.0,92,0.00,,,0.02,WUHU216DAVISVP2,2013-06-10 13:58:00,
2013-06-10 09:59:00,67.3,64.6,28.97,West,271,9.0,16.0,91,0.00,,,0.02,WUHU216DAVISVP2,2013-06-10 13:59:00,
2013-06-10 10:00:00,67.3,64.6,28.97,West,259,7.0,16.0,91,0.00,,,0.02,WUHU216DAVISVP2,2013-06-10 14:00:00,
2013-06-10 10:02:00,67.5,64.8,28.97,West,276,7.0,16.0,91,0.00,,,0.02,WUHU216DAVISVP2,2013-06-10 14:02:00,
2013-06-10 10:03:00,67.6,64.9,28.97,SW,233,10.0,16.0,91,0.00,,,0.02,WUHU216DAVISVP2,2013-06-10 14:03:00,
2013-06-10 10:05:00,67.7,65.0,28.97,West,260,11.0,16.0,91,0.00,,,0.02,WUHU216DAVISVP2,2013-06-10 14:05:00,
2013-06-10 10:07:00,67.8,64.7,28.97,WSW,249,5.0,16.0,90,0.00,,,0.02,WUHU216DAVISVP2,2013-06-10 14:07:00,
2013-06-10 10:08:00,67.8,64.7,28.97,West,278,11.0,16.0,90,0.00,,,0.02,WUHU216DAVISVP2,2013-06-10 14:08:00,
2013-06-10 10:10:00,67.8,64.4,28.97,WSW,256,11.0,16.0,89,0.00,,,0.02,WUHU216DAVISVP2,2013-06-10 14:10:00,
2013-06-10 10:12:00,68.0,64.3,28.97,West,260,10.0,16.0,88,0.00,,,0.02,WUHU216DAVISVP2,2013-06-10 14:12:00,
2013-06-10 10:13:00,68.0,64.3,28.97,WSW,237,7.0,16.0,88,0.00,,,0.02,WUHU216DAVISVP2,2013-06-10 14:13:00,
2013-06-10 10:15:00,68.0,64.3,28.97,WSW,248,11.0,16.0,88,0.00,,,0.02,WUHU216DAVISVP2,2013-06-10 14:15:00,
2013-06-10 10:17:00,68.0,64.3,28.97,West,262,12.0,16.0,88,0.00,,,0.02,WUHU216DAVISVP2,2013-06-10 14:17:00,
2013-06-10 10:18:00,68.0,64.3,28.97,WNW,286,11.0,16.0,88,0.00,,,0.02,WUHU216DAVISVP2,2013-06-10 14:18:00,
2013-06-10 10:20:00,68.0,64.3,28.97,WSW,249,10.0,16.0,88,0.00,,,0.02,WUHU216DAVISVP2,2013-06-10 14:20:00,
2013-06-10 10:22:00,68.0,64.3,28.96,WSW,245,10.0,18.0,88,0.00,,,0.02,WUHU216DAVISVP2,2013-06-10 14:22:00,
2013-06-10 10:23:00,68.0,64.3,28.96,WSW,252,7.0,18.0,88,0.00,,,0.02,WUHU216DAVISVP2,2013-06-10 14:23:00,
2013-06-10 10:25:00,68.0,64.3,28.96,WSW,250,9.0,18.0,88,0.00,,,0.02,WUHU216DAVISVP2,2013-06-10 14:25:00,
2013-06-10 10:26:00,68.0,64.3,28.96,WSW,250,9.0,18.0,88,0.00,,,0.02,WUHU216DAVISVP2,2013-06-10 14:26:00,
2013-06-10 10:28:00,68.0,64.3,28.96,West,272,8.0,18.0,88,0.00,,,0.02,WUHU216DAVISVP2,2013-06-10 14:28:00,
2013-06-10 10:30:00,68.0,64.3,28.97,WSW,241,7.0,18.0,88,0.00,,,0.02,WUHU216DAVISVP2,2013-06-10 14:30:00,
2013-06-10 10:31:00,68.1,64.1,28.97,WNW,287,6.0,18.0,87,0.00,,,0.02,WUHU216DAVISVP2,2013-06-10 14:31:00,
2013-06-10 10:33:00,68.2,64.2,28.97,West,264,9.0,18.0,87,0.00,,,0.02,WUHU216DAVISVP2,2013-06-10 14:33:00,
2013-06-10 10:35:00,68.5,64.5,28.96,WSW,248,6.0,18.0,87,0.00,,,0.02,WUHU216DAVISVP2,2013-06-10 14:35:00,
2013-06-10 10:37:00,68.6,64.6,28.96,WSW,258,8.0,18.0,87,0.00,,,0.02,WUHU216DAVISVP2,2013-06-10 14:37:00,
2013-06-10 10:38:00,68.8,64.8,28.96,West,271,10.0,18.0,87,0.00,,,0.02,WUHU216DAVISVP2,2013-06-10 14:38:00,
2013-06-10 10:41:00,69.0,64.7,28.96,SW,228,3.0,16.0,86,0.00,,,0.02,WUHU216DAVISVP2,2013-06-10 14:41:00,
2013-06-10 10:42:00,69.2,64.8,28.96,WSW,246,7.0,16.0,86,0.00,,,0.02,WUHU216DAVISVP2,2013-06-10 14:42:00,
2013-06-10 10:43:00,69.2,64.8,28.96,WSW,249,11.0,16.0,86,0.00,,,0.02,WUHU216DAVISVP2,2013-06-10 14:43:00,
2013-06-10 10:46:00,69.2,64.2,28.96,WNW,287,9.0,20.0,84,0.00,,,0.02,WUHU216DAVISVP2,2013-06-10 14:46:00,
2013-06-10 10:48:00,69.2,64.5,28.97,WSW,254,10.0,20.0,85,0.00,,,0.02,WUHU216DAVISVP2,2013-06-10 14:48:00,
2013-06-10 10:49:00,69.2,64.5,28.97,SW,234,5.0,20.0,85,0.00,,,0.02,WUHU216DAVISVP2,2013-06-10 14:49:00,
2013-06-10 10:51:00,69.4,65.0,28.97,WSW,241,6.0,20.0,86,0.00,,,0.02,WUHU216DAVISVP2,2013-06-10 14:51:00,
2013-06-10 10:53:00,69.4,64.4,28.97,West,281,10.0,20.0,84,0.00,,,0.02,WUHU216DAVISVP2,2013-06-10 14:53:00,
2013-06-10 10:54:00,69.4,64.1,28.97,West,274,9.0,20.0,83,0.00,,,0.02,WUHU216DAVISVP2,2013-06-10 14:54:00,
2013-06-10 10:56:00,69.3,63.6,28.96,WNW,300,9.0,20.0,82,0.00,,,0.02,WUHU216DAVISVP2,2013-06-10 14:56:00,
2013-06-10 10:57:00,69.3,63.6,28.96,WSW,254,6.0,20.0,82,0.00,,,0.02,WUHU216DAVISVP2,2013-06-10 14:57:00,
2013-06-10 10:58:00,69.4,64.1,28.96,West,259,8.0,20.0,83,0.00,,,0.02,WUHU216DAVISVP2,2013-06-10 14:58:00,
2013-06-10 10:59:00,69.4,64.1,28.96,WSW,253,6.0,20.0,83,0.00,,,0.02,WUHU216DAVISVP2,2013-06-10 14:59:00,
2013-06-10 11:02:00,69.6,63.9,28.96,SW,216,6.0,20.0,82,0.00,,,0.02,WUHU216DAVISVP2,2013-06-10 15:02:00,
2013-06-10 11:03:00,69.9,64.5,28.96,SW,226,7.0,18.0,83,0.00,,,0.02,WUHU216DAVISVP2,2013-06-10 15:03:00,
2013-06-10 11:04:00,70.0,64.6,28.96,WNW,299,10.0,15.0,83,0.00,,,0.02,WUHU216DAVISVP2,2013-06-10 15:04:00,
2013-06-10 11:07:00,70.2,63.8,28.96,SW,225,8.0,15.0,80,0.00,,,0.02,WUHU216DAVISVP2,2013-06-10 15:07:00,
2013-06-10 11:08:00,70.4,64.3,28.96,West,272,14.0,15.0,81,0.00,,,0.02,WUHU216DAVISVP2,2013-06-10 15:08:00,
2013-06-10 11:09:00,70.5,64.0,28.96,West,269,10.0,15.0,80,0.00,,,0.02,WUHU216DAVISVP2,2013-06-10 15:09:00,
2013-06-10 11:10:00,70.5,64.0,28.96,West,266,10.0,15.0,80,0.00,,,0.02,WUHU216DAVISVP2,2013-06-10 15:10:00,
2013-06-10 11:12:00,70.5,64.0,28.96,West,278,8.0,15.0,80,0.00,,,0.02,WUHU216DAVISVP2,2013-06-10 15:12:00,
2013-06-10 11:14:00,70.4,63.9,28.96,WNW,296,8.0,15.0,80,0.00,,,0.02,WUHU216DAVISVP2,2013-06-10 15:14:00,
2013-06-10 11:15:00,70.4,64.0,28.96,West,264,5.0,15.0,80,0.00,,,0.02,WUHU216DAVISVP2,2013-06-10 15:15:00,
2013-06-10 11:17:00,70.3,63.9,28.96,WNW,288,10.0,15.0,80,0.00,,,0.02,WUHU216DAVISVP2,2013-06-10 15:17:00,
2013-06-10 11:20:00,70.4,63.7,28.96,WSW,258,5.0,15.0,79,0.00,,,0.02,WUHU216DAVISVP2,2013-06-10 15:20:00,
2013-06-10 11:22:00,70.6,63.2,28.96,WSW,242,9.0,20.0,77,0.00,,,0.02,WUHU216DAVISVP2,2013-06-10 15:22:00,
2013-06-10 11:25:00,70.8,63.0,28.97,WSW,245,7.0,20.0,76,0.00,,,0.02,WUHU216DAVISVP2,2013-06-10 15:25:00,
2013-06-10 11:27:00,70.9,63.1,28.97,West,270,15.0,20.0,76,0.00,,,0.02,WUHU216DAVISVP2,2013-06-10 15:27:00,
2013-06-10 11:28:00,70.9,63.1,28.97,West,267,12.0,20.0,76,0.00,,,0.02,WUHU216DAVISVP2,2013-06-10 15:28:00,
2013-06-10 11:30:00,71.0,63.5,28.97,SW,214,8.0,20.0,77,0.00,,,0.02,WUHU216DAVISVP2,2013-06-10 15:30:00,
2013-06-10 11:32:00,71.0,63.5,28.97,West,278,5.0,20.0,77,0.00,,,0.02,WUHU216DAVISVP2,2013-06-10 15:32:00,
2013-06-10 11:33:00,71.0,63.5,28.97,NW,312,6.0,20.0,77,0.00,,,0.02,WUHU216DAVISVP2,2013-06-10 15:33:00,
2013-06-10 11:35:00,71.2,64.1,28.97,WSW,250,5.0,20.0,78,0.00,,,0.02,WUHU216DAVISVP2,2013-06-10 15:35:00,
2013-06-10 11:36:00,71.3,63.8,28.97,WSW,249,1.0,20.0,77,0.00,,,0.02,WUHU216DAVISVP2,2013-06-10 15:36:00,
2013-06-10 11:38:00,71.5,64.0,28.97,WSW,241,6.0,20.0,77,0.00,,,0.02,WUHU216DAVISVP2,2013-06-10 15:38:00,
2013-06-10 11:40:00,71.8,64.3,28.97,WSW,239,6.0,20.0,77,0.00,,,0.02,WUHU216DAVISVP2,2013-06-10 15:40:00,
2013-06-10 11:41:00,71.9,64.4,28.97,West,262,7.0,20.0,77,0.00,,,0.02,WUHU216DAVISVP2,2013-06-10 15:41:00,
2013-06-10 11:43:00,71.9,63.3,28.97,SW,235,7.0,15.0,74,0.00,,,0.02,WUHU216DAVISVP2,2013-06-10 15:43:00,
2013-06-10 11:44:00,71.9,63.3,28.97,WSW,238,9.0,15.0,74,0.00,,,0.02,WUHU216DAVISVP2,2013-06-10 15:44:00,
2013-06-10 11:45:00,71.9,62.9,28.97,WSW,238,7.0,15.0,73,0.00,,,0.02,WUHU216DAVISVP2,2013-06-10 15:45:00,
2013-06-10 11:46:00,71.9,63.3,28.97,WSW,241,14.0,15.0,74,0.00,,,0.02,WUHU216DAVISVP2,2013-06-10 15:46:00,
2013-06-10 11:47:00,71.9,62.9,28.97,West,278,5.0,15.0,73,0.00,,,0.02,WUHU216DAVISVP2,2013-06-10 15:47:00,
2013-06-10 11:48:00,71.8,62.8,28.97,NW,310,10.0,19.0,73,0.00,,,0.02,WUHU216DAVISVP2,2013-06-10 15:48:00,
2013-06-10 11:49:00,71.8,62.5,28.97,West,270,14.0,19.0,72,0.00,,,0.02,WUHU216DAVISVP2,2013-06-10 15:49:00,
2013-06-10 11:50:00,71.7,62.7,28.97,SW,216,8.0,19.0,73,0.00,,,0.02,WUHU216DAVISVP2,2013-06-10 15:50:00,
2013-06-10 11:51:00,71.7,62.7,28.97,West,262,7.0,19.0,73,0.00,,,0.02,WUHU216DAVISVP2,2013-06-10 15:51:00,
2013-06-10 11:52:00,71.7,62.4,28.97,West,271,12.0,19.0,72,0.00,,,0.02,WUHU216DAVISVP2,2013-06-10 15:52:00,
2013-06-10 11:53:00,71.8,62.8,28.97,WSW,245,14.0,19.0,73,0.00,,,0.02,WUHU216DAVISVP2,2013-06-10 15:53:00,
2013-06-10 11:54:00,71.8,62.1,28.97,SSW,213,5.0,24.0,71,0.00,,,0.02,WUHU216DAVISVP2,2013-06-10 15:54:00,
2013-06-10 11:55:00,72.0,62.7,28.97,SW,236,12.0,24.0,72,0.00,,,0.02,WUHU216DAVISVP2,2013-06-10 15:55:00,
2013-06-10 11:57:00,72.0,62.3,28.97,West,266,9.0,24.0,71,0.00,,,0.02,WUHU216DAVISVP2,2013-06-10 15:57:00,
2013-06-10 11:59:00,72.1,62.7,28.97,West,277,11.0,24.0,72,0.00,,,0.02,WUHU216DAVISVP2,2013-06-10 15:59:00,
2013-06-10 12:01:00,72.1,62.4,28.97,West,262,13.0,24.0,71,0.00,,,0.02,WUHU216DAVISVP2,2013-06-10 16:01:00,
2013-06-10 12:02:00,72.0,62.3,28.97,WSW,253,15.0,24.0,71,0.00,,,0.02,WUHU216DAVISVP2,2013-06-10 16:02:00,
2013-06-10 12:03:00,72.0,62.3,28.97,West,273,11.0,24.0,71,0.00,,,0.02,WUHU216DAVISVP2,2013-06-10 16:03:00,
2013-06-10 12:04:00,72.1,63.1,28.97,West,267,6.0,24.0,73,0.00,,,0.02,WUHU216DAVISVP2,2013-06-10 16:04:00,
2013-06-10 12:06:00,72.2,63.2,28.98,WSW,243,16.0,24.0,73,0.00,,,0.02,WUHU216DAVISVP2,2013-06-10 16:06:00,
2013-06-10 12:07:00,72.3,62.5,28.98,WSW,244,7.0,24.0,71,0.00,,,0.02,WUHU216DAVISVP2,2013-06-10 16:07:00,
2013-06-10 12:08:00,72.3,62.9,28.97,SSW,206,13.0,24.0,72,0.00,,,0.02,WUHU216DAVISVP2,2013-06-10 16:08:00,
2013-06-10 12:09:00,72.3,62.5,28.97,WSW,254,5.0,24.0,71,0.00,,,0.02,WUHU216DAVISVP2,2013-06-10 16:09:00,
2013-06-10 12:11:00,72.3,62.9,28.97,WSW,245,11.0,21.0,72,0.00,,,0.02,WUHU216DAVISVP2,2013-06-10 16:11:00,
2013-06-10 12:12:00,72.3,62.5,28.97,WSW,251,9.0,21.0,71,0.00,,,0.02,WUHU216DAVISVP2,2013-06-10 16:12:00,
2013-06-10 12:13:00,72.3,62.5,28.97,WSW,255,12.0,21.0,71,0.00,,,0.02,WUHU216DAVISVP2,2013-06-10 16:13:00,
2013-06-10 12:14:00,72.3,62.9,28.97,WSW,244,11.0,21.0,72,0.00,,,0.02,WUHU216DAVISVP2,2013-06-10 16:14:00,
2013-06-10 12:15:00,72.4,63.0,28.97,SW,235,10.0,21.0,72,0.00,,,0.02,WUHU216DAVISVP2,2013-06-10 16:15:00,
2013-06-10 12:17:00,72.4,62.6,28.97,WSW,257,12.0,21.0,71,0.00,,,0.02,WUHU216DAVISVP2,2013-06-10 16:17:00,
2013-06-10 12:18:00,72.4,63.0,28.97,WSW,243,9.0,21.0,72,0.00,,,0.02,WUHU216DAVISVP2,2013-06-10 16:18:00,
2013-06-10 12:19:00,72.5,63.1,28.97,WSW,249,5.0,21.0,72,0.00,,,0.02,WUHU216DAVISVP2,2013-06-10 16:19:00,
2013-06-10 12:20:00,72.5,63.1,28.97,WSW,243,12.0,21.0,72,0.00,,,0.02,WUHU216DAVISVP2,2013-06-10 16:20:00,
2013-06-10 12:22:00,72.8,63.8,28.97,WSW,239,9.0,21.0,73,0.00,,,0.02,WUHU216DAVISVP2,2013-06-10 16:22:00,
2013-06-10 12:23:00,72.9,63.9,28.97,WSW,237,5.0,21.0,73,0.00,,,0.02,WUHU216DAVISVP2,2013-06-10 16:23:00,
2013-06-10 12:24:00,73.0,64.0,28.97,WNW,297,12.0,19.0,73,0.00,,,0.02,WUHU216DAVISVP2,2013-06-10 16:24:00,
2013-06-10 12:25:00,73.0,64.0,28.97,West,273,13.0,19.0,73,0.00,,,0.02,WUHU216DAVISVP2,2013-06-10 16:25:00,
2013-06-10 12:27:00,73.0,63.2,28.97,West,280,13.0,19.0,71,0.00,,,0.02,WUHU216DAVISVP2,2013-06-10 16:27:00,
2013-06-10 12:28:00,72.9,63.5,28.97,WSW,247,11.0,19.0,72,0.00,,,0.02,WUHU216DAVISVP2,2013-06-10 16:28:00,
2013-06-10 12:29:00,72.8,63.0,28.97,SSW,210,4.0,19.0,71,0.00,,,0.02,WUHU216DAVISVP2,2013-06-10 16:29:00,
2013-06-10 12:30:00,72.8,63.0,28.97,WSW,244,8.0,19.0,71,0.00,,,0.02,WUHU216DAVISVP2,2013-06-10 16:30:00,
2013-06-10 12:32:00,72.9,63.9,28.97,West,268,2.0,23.0,73,0.00,,,0.02,WUHU216DAVISVP2,2013-06-10 16:32:00,
2013-06-10 12:33:00,73.0,64.0,28.97,WNW,288,8.0,23.0,73,0.00,,,0.02,WUHU216DAVISVP2,2013-06-10 16:33:00,
2013-06-10 12:35:00,73.0,63.2,28.97,West,262,10.0,23.0,71,0.00,,,0.02,WUHU216DAVISVP2,2013-06-10 16:35:00,
2013-06-10 12:37:00,73.0,63.2,28.97,West,260,10.0,23.0,71,0.00,,,0.02,WUHU216DAVISVP2,2013-06-10 16:37:00,
2013-06-10 12:38:00,73.0,63.2,28.97,WSW,246,9.0,23.0,71,0.00,,,0.02,WUHU216DAVISVP2,2013-06-10 16:38:00,
2013-06-10 12:39:00,73.0,63.2,28.97,SW,229,8.0,23.0,71,0.00,,,0.02,WUHU216DAVISVP2,2013-06-10 16:39:00,
2013-06-10 12:40:00,73.0,63.2,28.97,WSW,247,5.0,23.0,71,0.00,,,0.02,WUHU216DAVISVP2,2013-06-10 16:40:00,
2013-06-10 12:42:00,73.1,63.7,28.97,WSW,253,8.0,23.0,72,0.00,,,0.02,WUHU216DAVISVP2,2013-06-10 16:42:00,
2013-06-10 12:43:00,73.1,63.7,28.97,West,278,13.0,23.0,72,0.00,,,0.02,WUHU216DAVISVP2,2013-06-10 16:43:00,
2013-06-10 12:44:00,73.0,63.2,28.97,WSW,238,7.0,23.0,71,0.00,,,0.02,WUHU216DAVISVP2,2013-06-10 16:44:00,
2013-06-10 12:45:00,73.0,63.6,28.97,WNW,298,7.0,23.0,72,0.00,,,0.02,WUHU216DAVISVP2,2013-06-10 16:45:00,
2013-06-10 12:46:00,73.0,64.0,28.97,WNW,300,6.0,23.0,73,0.00,,,0.02,WUHU216DAVISVP2,2013-06-10 16:46:00,
2013-06-10 12:48:00,73.0,63.6,28.96,WSW,251,5.0,23.0,72,0.00,,,0.02,WUHU216DAVISVP2,2013-06-10 16:48:00,
2013-06-10 12:50:00,73.3,63.9,28.96,West,266,8.0,21.0,72,0.00,,,0.02,WUHU216DAVISVP2,2013-06-10 16:50:00,
2013-06-10 12:51:00,73.3,63.9,28.96,WSW,246,7.0,21.0,72,0.00,,,0.02,WUHU216DAVISVP2,2013-06-10 16:51:00,
2013-06-10 12:53:00,73.5,64.1,28.96,West,261,5.0,18.0,72,0.00,,,0.02,WUHU216DAVISVP2,2013-06-10 16:53:00,
2013-06-10 12:55:00,73.8,64.0,28.96,West,262,12.0,19.0,71,0.00,,,0.02,WUHU216DAVISVP2,2013-06-10 16:55:00,
2013-06-10 12:56:00,73.8,63.6,28.96,SW,234,6.0,19.0,70,0.00,,,0.02,WUHU216DAVISVP2,2013-06-10 16:56:00,
2013-06-10 12:58:00,73.7,63.5,28.96,WNW,289,9.0,19.0,70,0.00,,,0.02,WUHU216DAVISVP2,2013-06-10 16:58:00,
2013-06-10 13:00:00,73.7,63.5,28.97,West,273,8.0,19.0,70,0.00,,,0.02,WUHU216DAVISVP2,2013-06-10 17:00:00,
2013-06-10 13:01:00,73.8,63.6,28.96,WNW,297,8.0,19.0,70,0.00,,,0.02,WUHU216DAVISVP2,2013-06-10 17:01:00,
2013-06-10 13:03:00,73.9,64.1,28.96,WNW,289,12.0,19.0,71,0.00,,,0.02,WUHU216DAVISVP2,2013-06-10 17:03:00,
2013-06-10 13:05:00,73.6,62.6,28.96,WSW,251,14.0,19.0,68,0.00,,,0.02,WUHU216DAVISVP2,2013-06-10 17:05:00,
2013-06-10 13:06:00,73.5,63.3,28.96,WSW,258,9.0,19.0,70,0.00,,,0.02,WUHU216DAVISVP2,2013-06-10 17:06:00,
2013-06-10 13:08:00,73.3,63.5,28.96,WSW,244,4.0,19.0,71,0.00,,,0.02,WUHU216DAVISVP2,2013-06-10 17:08:00,
2013-06-10 13:10:00,73.4,64.0,28.96,WNW,293,10.0,19.0,72,0.00,,,0.02,WUHU216DAVISVP2,2013-06-10 17:10:00,
2013-06-10 13:11:00,73.5,64.1,28.96,WSW,249,8.0,19.0,72,0.00,,,0.02,WUHU216DAVISVP2,2013-06-10 17:11:00,
2013-06-10 13:12:00,73.5,63.7,28.95,WSW,242,13.0,19.0,71,0.00,,,0.02,WUHU216DAVISVP2,2013-06-10 17:12:00,
2013-06-10 13:13:00,73.5,63.7,28.95,West,276,6.0,19.0,71,0.00,,,0.02,WUHU216DAVISVP2,2013-06-10 17:13:00,
2013-06-10 13:16:00,73.5,62.9,28.95,WNW,291,7.0,19.0,69,0.00,,,0.02,WUHU216DAVISVP2,2013-06-10 17:16:00,
2013-06-10 13:17:00,73.5,63.7,28.95,WNW,295,6.0,19.0,71,0.00,,,0.02,WUHU216DAVISVP2,2013-06-10 17:17:00,
2013-06-10 13:18:00,73.5,62.9,28.96,WNW,287,4.0,19.0,69,0.00,,,0.02,WUHU216DAVISVP2,2013-06-10 17:18:00,
2013-06-10 13:19:00,73.5,62.9,28.96,WNW,287,4.0,19.0,69,0.00,,,0.02,WUHU216DAVISVP2,2013-06-10 17:19:00,
2013-06-10 13:22:00,73.7,63.1,28.96,WSW,253,9.0,19.0,69,0.00,,,0.02,WUHU216DAVISVP2,2013-06-10 17:22:00,
2013-06-10 13:24:00,73.7,63.5,28.95,West,263,13.0,19.0,70,0.00,,,0.02,WUHU216DAVISVP2,2013-06-10 17:24:00,
2013-06-10 13:27:00,73.9,63.3,28.95,West,281,6.0,19.0,69,0.00,,,0.02,WUHU216DAVISVP2,2013-06-10 17:27:00,
2013-06-10 13:29:00,73.9,63.7,28.95,NW,316,6.0,19.0,70,0.00,,,0.02,WUHU216DAVISVP2,2013-06-10 17:29:00,
2013-06-10 13:32:00,73.8,63.2,28.95,NNW,327,7.0,19.0,69,0.00,,,0.02,WUHU216DAVISVP2,2013-06-10 17:32:00,
2013-06-10 13:33:00,73.9,63.7,28.95,NW,305,9.0,19.0,70,0.00,,,0.02,WUHU216DAVISVP2,2013-06-10 17:33:00,
2013-06-10 13:34:00,73.8,63.6,28.95,NW,308,11.0,19.0,70,0.00,,,0.02,WUHU216DAVISVP2,2013-06-10 17:34:00,
2013-06-10 13:37:00,73.4,63.2,28.95,WNW,295,6.0,19.0,70,0.00,,,0.02,WUHU216DAVISVP2,2013-06-10 17:37:00,
2013-06-10 13:38:00,73.4,63.6,28.96,WNW,284,12.0,19.0,71,0.00,,,0.02,WUHU216DAVISVP2,2013-06-10 17:38:00,
2013-06-10 13:39:00,73.3,63.5,28.96,West,274,13.0,18.0,71,0.00,,,0.02,WUHU216DAVISVP2,2013-06-10 17:39:00,
2013-06-10 13:42:00,73.3,63.9,28.95,WNW,287,6.0,18.0,72,0.00,,,0.02,WUHU216DAVISVP2,2013-06-10 17:42:00,
2013-06-10 13:44:00,73.3,63.9,28.96,West,280,7.0,18.0,72,0.00,,,0.02,WUHU216DAVISVP2,2013-06-10 17:44:00,
2013-06-10 13:45:00,73.3,63.5,28.95,WSW,251,6.0,18.0,71,0.00,,,0.02,WUHU216DAVISVP2,2013-06-10 17:45:00,
2013-06-10 13:47:00,73.4,63.6,28.95,West,263,13.0,18.0,71,0.00,,,0.02,WUHU216DAVISVP2,2013-06-10 17:47:00,
2013-06-10 13:48:00,73.4,63.6,28.95,West,263,13.0,18.0,71,0.00,,,0.02,WUHU216DAVISVP2,2013-06-10 17:48:00,
2013-06-10 13:49:00,73.4,63.2,28.95,WSW,245,9.0,18.0,70,0.00,,,0.02,WUHU216DAVISVP2,2013-06-10 17:49:00,
2013-06-10 13:50:00,73.3,63.1,28.95,West,272,10.0,18.0,70,0.00,,,0.02,WUHU216DAVISVP2,2013-06-10 17:50:00,
2013-06-10 13:52:00,73.3,63.5,28.95,West,265,7.0,18.0,71,0.00,,,0.02,WUHU216DAVISVP2,2013-06-10 17:52:00,
2013-06-10 13:53:00,73.2,63.4,28.95,WSW,240,5.0,18.0,71,0.00,,,0.02,WUHU216DAVISVP2,2013-06-10 17:53:00,
2013-06-10 13:54:00,73.3,63.5,28.95,WSW,256,8.0,18.0,71,0.00,,,0.02,WUHU216DAVISVP2,2013-06-10 17:54:00,
2013-06-10 13:56:00,73.4,64.0,28.96,WSW,243,15.0,18.0,72,0.00,,,0.02,WUHU216DAVISVP2,2013-06-10 17:56:00,
2013-06-10 13:58:00,73.6,63.4,28.96,WSW,247,10.0,19.0,70,0.00,,,0.02,WUHU216DAVISVP2,2013-06-10 17:58:00,
2013-06-10 13:59:00,73.7,63.5,28.96,WSW,255,12.0,19.0,70,0.00,,,0.02,WUHU216DAVISVP2,2013-06-10 17:59:00,
2013-06-10 14:00:00,73.7,63.1,28.96,West,264,8.0,19.0,69,0.00,,,0.02,WUHU216DAVISVP2,2013-06-10 18:00:00,
2013-06-10 14:01:00,73.8,63.6,28.96,WSW,254,6.0,19.0,70,0.00,,,0.02,WUHU216DAVISVP2,2013-06-10 18:01:00,
2013-06-10 14:03:00,74.0,63.4,28.95,West,267,7.0,19.0,69,0.00,,,0.02,WUHU216DAVISVP2,2013-06-10 18:03:00,
2013-06-10 14:04:00,74.2,63.2,28.95,SW,214,14.0,19.0,68,0.00,,,0.02,WUHU216DAVISVP2,2013-06-10 18:04:00,
2013-06-10 14:05:00,74.3,63.3,28.95,SW,220,3.0,19.0,68,0.00,,,0.02,WUHU216DAVISVP2,2013-06-10 18:05:00,
2013-06-10 14:06:00,74.4,63.4,28.95,WSW,252,4.0,19.0,68,0.00,,,0.02,WUHU216DAVISVP2,2013-06-10 18:06:00,
2013-06-10 14:08:00,74.7,63.6,28.95,West,281,7.0,19.0,68,0.00,,,0.02,WUHU216DAVISVP2,2013-06-10 18:08:00,
2013-06-10 14:09:00,74.8,63.7,28.95,West,262,4.0,19.0,68,0.00,,,0.02,WUHU216DAVISVP2,2013-06-10 18:09:00,
2013-06-10 14:10:00,74.8,64.2,28.95,WSW,241,4.0,19.0,69,0.00,,,0.02,WUHU216DAVISVP2,2013-06-10 18:10:00,
2013-06-10 14:12:00,75.0,63.9,28.95,WSW,243,11.0,19.0,68,0.00,,,0.02,WUHU216DAVISVP2,2013-06-10 18:12:00,
2013-06-10 14:13:00,75.0,63.9,28.95,West,275,8.0,19.0,68,0.00,,,0.02,WUHU216DAVISVP2,2013-06-10 18:13:00,
2013-06-10 14:15:00,74.9,63.4,28.95,WSW,240,10.0,19.0,67,0.00,,,0.02,WUHU216DAVISVP2,2013-06-10 18:15:00,
2013-06-10 14:16:00,74.8,63.7,28.96,West,266,8.0,18.0,68,0.00,,,0.02,WUHU216DAVISVP2,2013-06-10 18:16:00,
2013-06-10 14:17:00,74.6,63.5,28.96,WNW,286,12.0,18.0,68,0.00,,,0.02,WUHU216DAVISVP2,2013-06-10 18:17:00,
2013-06-10 14:18:00,74.3,63.7,28.96,WSW,250,11.0,19.0,69,0.00,,,0.02,WUHU216DAVISVP2,2013-06-10 18:18:00,
2013-06-10 14:20:00,74.1,63.1,28.96,West,272,11.0,19.0,68,0.00,,,0.02,WUHU216DAVISVP2,2013-06-10 18:20:00,
2013-06-10 14:22:00,73.8,62.8,28.96,WNW,285,7.0,19.0,68,0.00,,,0.02,WUHU216DAVISVP2,2013-06-10 18:22:00,
2013-06-10 14:23:00,73.6,62.2,28.95,West,274,9.0,19.0,67,0.00,,,0.02,WUHU216DAVISVP2,2013-06-10 18:23:00,
2013-06-10 14:24:00,73.5,62.5,28.95,WNW,289,7.0,19.0,68,0.00,,,0.02,WUHU216DAVISVP2,2013-06-10 18:24:00,
2013-06-10 14:25:00,73.5,62.5,28.95,WNW,295,6.0,19.0,68,0.00,,,0.02,WUHU216DAVISVP2,2013-06-10 18:25:00,
2013-06-10 14:27:00,73.4,62.8,28.95,WSW,255,4.0,19.0,69,0.00,,,0.02,WUHU216DAVISVP2,2013-06-10 18:27:00,
2013-06-10 14:28:00,73.4,63.2,28.95,WSW,253,9.0,19.0,70,0.00,,,0.02,WUHU216DAVISVP2,2013-06-10 18:28:00,
2013-06-10 14:29:00,73.5,63.3,28.95,West,264,8.0,19.0,70,0.00,,,0.02,WUHU216DAVISVP2,2013-06-10 18:29:00,
2013-06-10 14:30:00,73.6,63.8,28.95,WSW,247,9.0,19.0,71,0.00,,,0.02,WUHU216DAVISVP2,2013-06-10 18:30:00,
2013-06-10 14:32:00,73.8,63.2,28.96,West,265,9.0,19.0,69,0.00,,,0.02,WUHU216DAVISVP2,2013-06-10 18:32:00,
2013-06-10 14:33:00,73.8,63.2,28.96,WSW,251,11.0,19.0,69,0.00,,,0.02,WUHU216DAVISVP2,2013-06-10 18:33:00,
2013-06-10 14:34:00,73.9,63.3,28.96,West,266,12.0,19.0,69,0.00,,,0.02,WUHU216DAVISVP2,2013-06-10 18:34:00,
2013-06-10 14:35:00,74.0,63.8,28.96,West,268,15.0,19.0,70,0.00,,,0.02,WUHU216DAVISVP2,2013-06-10 18:35:00,
2013-06-10 14:38:00,74.4,63.8,28.95,WSW,240,11.0,19.0,69,0.00,,,0.02,WUHU216DAVISVP2,2013-06-10 18:38:00,
2013-06-10 14:39:00,74.5,64.3,28.96,West,259,12.0,19.0,70,0.00,,,0.02,WUHU216DAVISVP2,2013-06-10 18:39:00,
2013-06-10 14:40:00,74.6,64.0,28.95,West,267,10.0,19.0,69,0.00,,,0.02,WUHU216DAVISVP2,2013-06-10 18:40:00,
2013-06-10 14:43:00,74.2,64.0,28.95,WNW,287,8.0,19.0,70,0.00,,,0.02,WUHU216DAVISVP2,2013-06-10 18:43:00,
2013-06-10 14:44:00,74.1,63.9,28.95,NW,312,9.0,19.0,70,0.00,,,0.02,WUHU216DAVISVP2,2013-06-10 18:44:00,
2013-06-10 14:45:00,74.0,63.8,28.95,WNW,289,8.0,19.0,70,0.00,,,0.02,WUHU216DAVISVP2,2013-06-10 18:45:00,
2013-06-10 14:46:00,74.0,63.8,28.95,WNW,287,9.0,19.0,70,0.00,,,0.02,WUHU216DAVISVP2,2013-06-10 18:46:00,
2013-06-10 14:48:00,73.9,63.7,28.95,West,266,9.0,19.0,70,0.00,,,0.02,WUHU216DAVISVP2,2013-06-10 18:48:00,
2013-06-10 14:49:00,73.9,64.1,28.95,WNW,285,12.0,19.0,71,0.00,,,0.02,WUHU216DAVISVP2,2013-06-10 18:49:00,
2013-06-10 14:50:00,73.9,63.7,28.95,West,269,9.0,16.0,70,0.00,,,0.02,WUHU216DAVISVP2,2013-06-10 18:50:00,
2013-06-10 14:51:00,74.0,63.8,28.95,WNW,293,7.0,16.0,70,0.00,,,0.02,WUHU216DAVISVP2,2013-06-10 18:51:00,
2013-06-10 14:53:00,74.1,64.3,28.95,WNW,285,10.0,16.0,71,0.00,,,0.02,WUHU216DAVISVP2,2013-06-10 18:53:00,
2013-06-10 14:54:00,74.2,64.4,28.95,WSW,253,8.0,16.0,71,0.00,,,0.02,WUHU216DAVISVP2,2013-06-10 18:54:00,
2013-06-10 14:55:00,74.2,64.4,28.95,West,274,12.0,16.0,71,0.00,,,0.02,WUHU216DAVISVP2,2013-06-10 18:55:00,
2013-06-10 14:56:00,74.3,64.1,28.95,WSW,254,6.0,16.0,70,0.00,,,0.02,WUHU216DAVISVP2,2013-06-10 18:56:00,
2013-06-10 14:58:00,74.3,64.5,28.95,WSW,254,8.0,16.0,71,0.00,,,0.02,WUHU216DAVISVP2,2013-06-10 18:58:00,
2013-06-10 14:59:00,74.3,64.1,28.95,WNW,297,8.0,16.0,70,0.00,,,0.02,WUHU216DAVISVP2,2013-06-10 18:59:00,
2013-06-10 15:00:00,74.2,64.0,28.95,WNW,287,9.0,16.0,70,0.00,,,0.02,WUHU216DAVISVP2,2013-06-10 19:00:00,
2013-06-10 15:01:00,74.1,63.9,28.95,WNW,296,8.0,16.0,70,0.00,,,0.02,WUHU216DAVISVP2,2013-06-10 19:01:00,
2013-06-10 15:03:00,74.1,64.3,28.95,NNW,330,10.0,16.0,71,0.00,,,0.02,WUHU216DAVISVP2,2013-06-10 19:03:00,
2013-06-10 15:04:00,74.2,64.0,28.95,WNW,300,11.0,16.0,70,0.00,,,0.02,WUHU216DAVISVP2,2013-06-10 19:04:00,
2013-06-10 15:05:00,74.3,63.7,28.95,WNW,293,10.0,16.0,69,0.00,,,0.02,WUHU216DAVISVP2,2013-06-10 19:05:00,
2013-06-10 15:06:00,74.3,63.7,28.95,West,276,15.0,15.0,69,0.00,,,0.02,WUHU216DAVISVP2,2013-06-10 19:06:00,
2013-06-10 15:08:00,74.5,63.9,28.94,West,276,7.0,18.0,69,0.00,,,0.02,WUHU216DAVISVP2,2013-06-10 19:08:00,
2013-06-10 15:09:00,74.6,64.4,28.94,West,261,9.0,18.0,70,0.00,,,0.02,WUHU216DAVISVP2,2013-06-10 19:09:00,
2013-06-10 15:10:00,74.7,63.6,28.95,NW,308,7.0,18.0,68,0.00,,,0.02,WUHU216DAVISVP2,2013-06-10 19:10:00,
2013-06-10 15:11:00,74.7,63.6,28.95,West,280,10.0,18.0,68,0.00,,,0.02,WUHU216DAVISVP2,2013-06-10 19:11:00,
2013-06-10 15:13:00,74.7,63.2,28.95,West,271,11.0,18.0,67,0.00,,,0.02,WUHU216DAVISVP2,2013-06-10 19:13:00,
2013-06-10 15:14:00,74.7,63.6,28.95,WNW,287,11.0,18.0,68,0.00,,,0.02,WUHU216DAVISVP2,2013-06-10 19:14:00,
2013-06-10 15:15:00,74.7,63.6,28.95,NW,307,9.0,18.0,68,0.00,,,0.02,WUHU216DAVISVP2,2013-06-10 19:15:00,
2013-06-10 15:16:00,74.7,63.6,28.95,NW,319,5.0,18.0,68,0.00,,,0.02,WUHU216DAVISVP2,2013-06-10 19:16:00,
2013-06-10 15:18:00,74.9,63.8,28.95,West,273,8.0,18.0,68,0.00,,,0.02,WUHU216DAVISVP2,2013-06-10 19:18:00,
2013-06-10 15:19:00,75.1,64.8,28.95,WNW,285,8.0,18.0,70,0.00,,,0.02,WUHU216DAVISVP2,2013-06-10 19:19:00,
2013-06-10 15:20:00,75.2,64.5,28.95,West,272,5.0,18.0,69,0.00,,,0.02,WUHU216DAVISVP2,2013-06-10 19:20:00,
2013-06-10 15:21:00,75.3,64.6,28.95,WNW,285,12.0,18.0,69,0.00,,,0.02,WUHU216DAVISVP2,2013-06-10 19:21:00,
2013-06-10 15:22:00,75.2,63.3,28.95,West,277,10.0,18.0,66,0.00,,,0.02,WUHU216DAVISVP2,2013-06-10 19:22:00,
2013-06-10 15:24:00,75.1,64.0,28.95,WNW,295,8.0,18.0,68,0.00,,,0.02,WUHU216DAVISVP2,2013-06-10 19:24:00,
2013-06-10 15:25:00,75.0,63.9,28.95,WNW,289,9.0,18.0,68,0.00,,,0.02,WUHU216DAVISVP2,2013-06-10 19:25:00,
2013-06-10 15:26:00,75.0,63.9,28.95,WNW,283,7.0,18.0,68,0.00,,,0.02,WUHU216DAVISVP2,2013-06-10 19:26:00,
2013-06-10 15:28:00,74.8,63.7,28.95,West,272,0.0,16.0,68,0.00,,,0.02,WUHU216DAVISVP2,2013-06-10 19:28:00,
2013-06-10 15:29:00,74.8,63.7,28.95,WSW,246,4.0,16.0,68,0.00,,,0.02,WUHU216DAVISVP2,2013-06-10 19:29:00,
2013-06-10 15:30:00,74.8,64.2,28.96,West,266,8.0,16.0,69,0.00,,,0.02,WUHU216DAVISVP2,2013-06-10 19:30:00,
2013-06-10 15:31:00,74.9,64.2,28.96,WNW,297,12.0,16.0,69,0.00,,,0.02,WUHU216DAVISVP2,2013-06-10 19:31:00,
2013-06-10 15:33:00,74.8,63.3,28.95,West,280,5.0,16.0,67,0.00,,,0.02,WUHU216DAVISVP2,2013-06-10 19:33:00,
2013-06-10 15:34:00,74.9,63.8,28.95,WSW,247,9.0,16.0,68,0.00,,,0.02,WUHU216DAVISVP2,2013-06-10 19:34:00,
2013-06-10 15:35:00,74.9,63.4,28.95,WNW,296,11.0,16.0,67,0.00,,,0.02,WUHU216DAVISVP2,2013-06-10 19:35:00,
2013-06-10 15:36:00,74.8,63.3,28.95,NW,304,11.0,16.0,67,0.00,,,0.02,WUHU216DAVISVP2,2013-06-10 19:36:00,
2013-06-10 15:39:00,74.7,63.2,28.95,WNW,301,7.0,16.0,67,0.00,,,0.02,WUHU216DAVISVP2,2013-06-10 19:39:00,
2013-06-10 15:40:00,74.7,63.2,28.95,West,268,10.0,16.0,67,0.00,,,0.02,WUHU216DAVISVP2,2013-06-10 19:40:00,
2013-06-10 15:41:00,74.7,63.2,28.95,WNW,289,5.0,15.0,67,0.00,,,0.02,WUHU216DAVISVP2,2013-06-10 19:41:00,
2013-06-10 15:42:00,74.8,63.7,28.95,WNW,296,11.0,15.0,68,0.00,,,0.02,WUHU216DAVISVP2,2013-06-10 19:42:00,
2013-06-10 15:44:00,75.2,64.5,28.95,West,271,8.0,15.0,69,0.00,,,0.02,WUHU216DAVISVP2,2013-06-10 19:44:00,
2013-06-10 15:45:00,75.4,64.3,28.95,WNW,282,8.0,15.0,68,0.00,,,0.02,WUHU216DAVISVP2,2013-06-10 19:45:00,
2013-06-10 15:46:00,75.5,64.0,28.95,West,277,9.0,15.0,67,0.00,,,0.02,WUHU216DAVISVP2,2013-06-10 19:46:00,
2013-06-10 15:47:00,75.4,63.5,28.95,West,263,6.0,15.0,66,0.00,,,0.02,WUHU216DAVISVP2,2013-06-10 19:47:00,
2013-06-10 15:49:00,75.5,64.4,28.95,WSW,257,8.0,15.0,68,0.00,,,0.02,WUHU216DAVISVP2,2013-06-10 19:49:00,
2013-06-10 15:50:00,75.5,64.4,28.95,West,264,11.0,15.0,68,0.00,,,0.02,WUHU216DAVISVP2,2013-06-10 19:50:00,
2013-06-10 15:52:00,75.7,64.2,28.95,WSW,240,13.0,15.0,67,0.00,,,0.02,WUHU216DAVISVP2,2013-06-10 19:52:00,
2013-06-10 15:53:00,75.9,63.9,28.95,WNW,293,8.0,15.0,66,0.00,,,0.02,WUHU216DAVISVP2,2013-06-10 19:53:00,
2013-06-10 15:54:00,76.0,64.5,28.95,West,265,9.0,14.0,67,0.00,,,0.02,WUHU216DAVISVP2,2013-06-10 19:54:00,
2013-06-10 15:56:00,76.1,64.1,28.95,WSW,251,6.0,16.0,66,0.00,,,0.02,WUHU216DAVISVP2,2013-06-10 19:56:00,
2013-06-10 15:57:00,76.1,63.7,28.95,NW,306,9.0,16.0,65,0.00,,,0.02,WUHU216DAVISVP2,2013-06-10 19:57:00,
2013-06-10 15:58:00,76.2,64.7,28.95,West,270,9.0,16.0,67,0.00,,,0.02,WUHU216DAVISVP2,2013-06-10 19:58:00,
2013-06-10 15:59:00,76.2,63.8,28.95,WNW,283,8.0,16.0,65,0.00,,,0.02,WUHU216DAVISVP2,2013-06-10 19:59:00,
2013-06-10 16:01:00,76.1,63.7,28.95,West,274,10.0,16.0,65,0.00,,,0.02,WUHU216DAVISVP2,2013-06-10 20:01:00,
2013-06-10 16:02:00,76.0,64.0,28.95,WNW,297,8.0,16.0,66,0.00,,,0.02,WUHU216DAVISVP2,2013-06-10 20:02:00,
2013-06-10 16:03:00,75.9,63.5,28.95,NW,310,10.0,16.0,65,0.00,,,0.02,WUHU216DAVISVP2,2013-06-10 20:03:00,
2013-06-10 16:05:00,75.7,63.8,28.95,WNW,297,11.0,16.0,66,0.00,,,0.02,WUHU216DAVISVP2,2013-06-10 20:05:00,
2013-06-10 16:06:00,75.5,63.1,28.95,WNW,286,7.0,16.0,65,0.00,,,0.02,WUHU216DAVISVP2,2013-06-10 20:06:00,
2013-06-10 16:07:00,75.5,63.1,28.95,WNW,296,8.0,16.0,65,0.00,,,0.02,WUHU216DAVISVP2,2013-06-10 20:07:00,
2013-06-10 16:08:00,75.3,62.9,28.95,West,274,13.0,16.0,65,0.00,,,0.02,WUHU216DAVISVP2,2013-06-10 20:08:00,
2013-06-10 16:10:00,75.2,63.7,28.95,West,271,6.0,16.0,67,0.00,,,0.02,WUHU216DAVISVP2,2013-06-10 20:10:00,
2013-06-10 16:12:00,75.3,64.2,28.95,WSW,241,7.0,16.0,68,0.00,,,0.02,WUHU216DAVISVP2,2013-06-10 20:12:00,
2013-06-10 16:13:00,75.4,63.9,28.95,WNW,293,7.0,16.0,67,0.00,,,0.02,WUHU216DAVISVP2,2013-06-10 20:13:00,
2013-06-10 16:15:00,75.8,63.9,28.94,NW,306,9.0,16.0,66,0.00,,,0.02,WUHU216DAVISVP2,2013-06-10 20:15:00,
2013-06-10 16:17:00,75.7,63.1,28.94,NW,305,6.0,16.0,65,0.00,,,0.02,WUHU216DAVISVP2,2013-06-10 20:17:00,
2013-06-10 16:18:00,75.7,63.1,28.94,WNW,283,11.0,16.0,65,0.00,,,0.02,WUHU216DAVISVP2,2013-06-10 20:18:00,
2013-06-10 16:20:00,75.7,64.0,28.94,WSW,256,12.0,16.0,67,0.00,,,0.02,WUHU216DAVISVP2,2013-06-10 20:20:00,
2013-06-10 16:22:00,75.6,63.0,28.94,West,275,5.0,19.0,65,0.00,,,0.02,WUHU216DAVISVP2,2013-06-10 20:22:00,
2013-06-10 16:23:00,75.6,62.6,28.94,SSW,205,8.0,19.0,64,0.00,,,0.02,WUHU216DAVISVP2,2013-06-10 20:23:00,
2013-06-10 16:25:00,75.6,63.7,28.95,West,270,7.0,19.0,66,0.00,,,0.02,WUHU216DAVISVP2,2013-06-10 20:25:00,
2013-06-10 16:27:00,75.8,63.4,28.94,West,276,14.0,19.0,65,0.00,,,0.02,WUHU216DAVISVP2,2013-06-10 20:27:00,
2013-06-10 16:28:00,75.9,63.5,28.95,WSW,254,10.0,19.0,65,0.00,,,0.02,WUHU216DAVISVP2,2013-06-10 20:28:00,
2013-06-10 16:29:00,75.9,63.5,28.95,West,275,9.0,19.0,65,0.00,,,0.02,WUHU216DAVISVP2,2013-06-10 20:29:00,
2013-06-10 16:30:00,76.0,64.0,28.95,WSW,247,14.0,19.0,66,0.00,,,0.02,WUHU216DAVISVP2,2013-06-10 20:30:00,
2013-06-10 16:32:00,75.8,63.4,28.95,West,277,11.0,19.0,65,0.00,,,0.02,WUHU216DAVISVP2,2013-06-10 20:32:00,
2013-06-10 16:33:00,75.8,63.9,28.94,WNW,295,8.0,19.0,66,0.00,,,0.02,WUHU216DAVISVP2,2013-06-10 20:33:00,
2013-06-10 16:34:00,75.8,63.6,28.94,WSW,251,8.0,19.0,66,0.00,,,0.02,WUHU216DAVISVP2,2013-06-10 20:34:00,
2013-06-10 16:36:00,75.9,64.2,28.94,WNW,289,6.0,19.0,67,0.00,,,0.02,WUHU216DAVISVP2,2013-06-10 20:36:00,
2013-06-10 16:37:00,75.7,63.1,28.94,WSW,257,8.0,19.0,65,0.00,,,0.02,WUHU216DAVISVP2,2013-06-10 20:37:00,
2013-06-10 16:38:00,75.7,63.8,28.94,West,265,11.0,19.0,66,0.00,,,0.02,WUHU216DAVISVP2,2013-06-10 20:38:00,
2013-06-10 16:39:00,75.7,63.8,28.94,West,278,14.0,19.0,66,0.00,,,0.02,WUHU216DAVISVP2,2013-06-10 20:39:00,
2013-06-10 16:42:00,75.5,63.3,28.94,NW,314,10.0,19.0,66,0.00,,,0.02,WUHU216DAVISVP2,2013-06-10 20:42:00,
2013-06-10 16:43:00,75.5,63.3,28.94,West,270,8.0,19.0,66,0.00,,,0.02,WUHU216DAVISVP2,2013-06-10 20:43:00,
2013-06-10 16:44:00,75.5,63.3,28.94,NW,312,7.0,19.0,66,0.00,,,0.02,WUHU216DAVISVP2,2013-06-10 20:44:00,
2013-06-10 16:45:00,75.5,63.3,28.94,WNW,302,12.0,19.0,66,0.00,,,0.02,WUHU216DAVISVP2,2013-06-10 20:45:00,
2013-06-10 16:47:00,75.6,63.4,28.95,WNW,294,4.0,19.0,66,0.00,,,0.02,WUHU216DAVISVP2,2013-06-10 20:47:00,
2013-06-10 16:48:00,75.8,63.4,28.95,West,274,7.0,19.0,65,0.00,,,0.02,WUHU216DAVISVP2,2013-06-10 20:48:00,
2013-06-10 16:49:00,75.9,63.5,28.95,West,280,8.0,19.0,65,0.00,,,0.02,WUHU216DAVISVP2,2013-06-10 20:49:00,
2013-06-10 16:50:00,76.0,63.6,28.95,WNW,299,12.0,18.0,65,0.00,,,0.02,WUHU216DAVISVP2,2013-06-10 20:50:00,
2013-06-10 16:52:00,76.0,63.4,28.95,WNW,295,9.0,16.0,65,0.00,,,0.02,WUHU216DAVISVP2,2013-06-10 20:52:00,
2013-06-10 16:53:00,76.0,63.4,28.94,West,271,10.0,16.0,65,0.00,,,0.02,WUHU216DAVISVP2,2013-06-10 20:53:00,
2013-06-10 16:54:00,76.0,63.4,28.94,West,276,10.0,16.0,65,0.00,,,0.02,WUHU216DAVISVP2,2013-06-10 20:54:00,
2013-06-10 16:55:00,76.0,63.4,28.94,WNW,285,8.0,16.0,65,0.00,,,0.02,WUHU216DAVISVP2,2013-06-10 20:55:00,
2013-06-10 16:57:00,76.0,64.0,28.94,West,278,10.0,16.0,66,0.00,,,0.02,WUHU216DAVISVP2,2013-06-10 20:57:00,
2013-06-10 16:58:00,76.0,64.0,28.94,West,278,6.0,16.0,66,0.00,,,0.02,WUHU216DAVISVP2,2013-06-10 20:58:00,
2013-06-10 16:59:00,76.0,64.0,28.94,West,268,6.0,16.0,66,0.00,,,0.02,WUHU216DAVISVP2,2013-06-10 20:59:00,
2013-06-10 17:00:00,76.1,64.1,28.94,West,273,9.0,16.0,66,0.00,,,0.02,WUHU216DAVISVP2,2013-06-10 21:00:00,
2013-06-10 17:02:00,76.1,64.1,28.94,West,280,8.0,16.0,66,0.00,,,0.02,WUHU216DAVISVP2,2013-06-10 21:02:00,
2013-06-10 17:04:00,76.1,64.1,28.94,WSW,258,5.0,16.0,66,0.00,,,0.02,WUHU216DAVISVP2,2013-06-10 21:04:00,
2013-06-10 17:05:00,76.1,63.9,28.94,WNW,303,12.0,16.0,66,0.00,,,0.02,WUHU216DAVISVP2,2013-06-10 21:05:00,
2013-06-10 17:08:00,76.0,63.4,28.95,West,280,10.0,16.0,65,0.00,,,0.02,WUHU216DAVISVP2,2013-06-10 21:08:00,
2013-06-10 17:09:00,75.7,63.3,28.95,West,280,9.0,16.0,65,0.00,,,0.02,WUHU216DAVISVP2,2013-06-10 21:09:00,
2013-06-10 17:10:00,75.6,63.2,28.95,WSW,254,11.0,16.0,65,0.00,,,0.02,WUHU216DAVISVP2,2013-06-10 21:10:00,
2013-06-10 17:13:00,75.5,63.3,28.95,WNW,285,4.0,16.0,66,0.00,,,0.02,WUHU216DAVISVP2,2013-06-10 21:13:00,
2013-06-10 17:14:00,75.5,63.3,28.95,WNW,293,7.0,16.0,66,0.00,,,0.02,WUHU216DAVISVP2,2013-06-10 21:14:00,
2013-06-10 17:15:00,75.5,63.3,28.94,WNW,295,5.0,16.0,66,0.00,,,0.02,WUHU216DAVISVP2,2013-06-10 21:15:00,
2013-06-10 17:16:00,75.5,63.3,28.94,West,281,6.0,16.0,66,0.00,,,0.02,WUHU216DAVISVP2,2013-06-10 21:16:00,
2013-06-10 17:18:00,75.5,63.1,28.94,WNW,291,10.0,16.0,65,0.00,,,0.02,WUHU216DAVISVP2,2013-06-10 21:18:00,
2013-06-10 17:19:00,75.4,63.0,28.94,West,266,9.0,16.0,65,0.00,,,0.02,WUHU216DAVISVP2,2013-06-10 21:19:00,
2013-06-10 17:20:00,75.4,63.5,28.94,WNW,291,11.0,16.0,66,0.00,,,0.02,WUHU216DAVISVP2,2013-06-10 21:20:00,
2013-06-10 17:21:00,75.4,63.5,28.94,West,278,6.0,16.0,66,0.00,,,0.02,WUHU216DAVISVP2,2013-06-10 21:21:00,
2013-06-10 17:22:00,75.4,63.0,28.94,West,261,6.0,16.0,65,0.00,,,0.02,WUHU216DAVISVP2,2013-06-10 21:22:00,
2013-06-10 17:23:00,75.4,63.5,28.94,West,280,9.0,16.0,66,0.00,,,0.02,WUHU216DAVISVP2,2013-06-10 21:23:00,
2013-06-10 17:24:00,75.4,63.0,28.94,West,281,6.0,16.0,65,0.00,,,0.02,WUHU216DAVISVP2,2013-06-10 21:24:00,
2013-06-10 17:25:00,75.4,63.0,28.94,WNW,287,10.0,16.0,65,0.00,,,0.02,WUHU216DAVISVP2,2013-06-10 21:25:00,
2013-06-10 17:27:00,75.4,63.0,28.94,WNW,288,10.0,16.0,65,0.00,,,0.02,WUHU216DAVISVP2,2013-06-10 21:27:00,
2013-06-10 17:28:00,75.6,63.0,28.95,WNW,294,7.0,16.0,65,0.00,,,0.02,WUHU216DAVISVP2,2013-06-10 21:28:00,
2013-06-10 17:30:00,75.7,63.1,28.94,West,272,9.0,16.0,65,0.00,,,0.02,WUHU216DAVISVP2,2013-06-10 21:30:00,
2013-06-10 17:31:00,75.7,62.7,28.94,WNW,299,8.0,16.0,64,0.00,,,0.02,WUHU216DAVISVP2,2013-06-10 21:31:00,
2013-06-10 17:32:00,75.6,62.6,28.94,NNW,331,10.0,16.0,64,0.00,,,0.02,WUHU216DAVISVP2,2013-06-10 21:32:00,
2013-06-10 17:34:00,75.4,62.8,28.94,West,266,8.0,16.0,65,0.00,,,0.02,WUHU216DAVISVP2,2013-06-10 21:34:00,
2013-06-10 17:35:00,75.4,62.4,28.94,West,266,7.0,16.0,64,0.00,,,0.02,WUHU216DAVISVP2,2013-06-10 21:35:00,
2013-06-10 17:36:00,75.4,63.0,28.94,WNW,293,9.0,16.0,65,0.00,,,0.02,WUHU216DAVISVP2,2013-06-10 21:36:00,
2013-06-10 17:37:00,75.4,63.5,28.93,West,265,6.0,16.0,66,0.00,,,0.02,WUHU216DAVISVP2,2013-06-10 21:37:00,
2013-06-10 17:39:00,75.5,63.6,28.93,WNW,295,2.0,16.0,66,0.00,,,0.02,WUHU216DAVISVP2,2013-06-10 21:39:00,
2013-06-10 17:40:00,75.5,64.0,28.93,West,277,8.0,16.0,67,0.00,,,0.02,WUHU216DAVISVP2,2013-06-10 21:40:00,
2013-06-10 17:41:00,75.6,63.7,28.93,WNW,297,6.0,16.0,66,0.00,,,0.02,WUHU216DAVISVP2,2013-06-10 21:41:00,
2013-06-10 17:42:00,75.5,63.1,28.93,NW,306,6.0,16.0,65,0.00,,,0.02,WUHU216DAVISVP2,2013-06-10 21:42:00,
2013-06-10 17:43:00,75.5,62.7,28.93,NW,308,6.0,16.0,64,0.00,,,0.02,WUHU216DAVISVP2,2013-06-10 21:43:00,
2013-06-10 17:44:00,75.5,62.7,28.93,NW,309,12.0,16.0,64,0.00,,,0.02,WUHU216DAVISVP2,2013-06-10 21:44:00,
2013-06-10 17:46:00,75.4,63.0,28.93,WNW,296,7.0,16.0,65,0.00,,,0.02,WUHU216DAVISVP2,2013-06-10 21:46:00,
2013-06-10 17:47:00,75.3,62.7,28.94,WNW,295,10.0,16.0,65,0.00,,,0.02,WUHU216DAVISVP2,2013-06-10 21:47:00,
2013-06-10 17:48:00,75.3,62.7,28.94,NW,310,9.0,16.0,65,0.00,,,0.02,WUHU216DAVISVP2,2013-06-10 21:48:00,
2013-06-10 17:49:00,75.3,62.7,28.94,WNW,295,8.0,15.0,65,0.00,,,0.02,WUHU216DAVISVP2,2013-06-10 21:49:00,
2013-06-10 17:51:00,75.4,63.2,28.94,West,268,8.0,15.0,66,0.00,,,0.02,WUHU216DAVISVP2,2013-06-10 21:51:00,
2013-06-10 17:52:00,75.4,63.2,28.94,WNW,295,6.0,15.0,66,0.00,,,0.02,WUHU216DAVISVP2,2013-06-10 21:52:00,
2013-06-10 17:53:00,75.4,62.8,28.94,WNW,295,6.0,13.0,65,0.00,,,0.02,WUHU216DAVISVP2,2013-06-10 21:53:00,
2013-06-10 17:54:00,75.4,62.8,28.94,West,275,8.0,13.0,65,0.00,,,0.02,WUHU216DAVISVP2,2013-06-10 21:54:00,
2013-06-10 17:57:00,75.5,63.1,28.94,WNW,294,9.0,13.0,65,0.00,,,0.02,WUHU216DAVISVP2,2013-06-10 21:57:00,
2013-06-10 17:58:00,75.5,63.1,28.94,West,276,6.0,13.0,65,0.00,,,0.02,WUHU216DAVISVP2,2013-06-10 21:58:00,
2013-06-10 17:59:00,75.5,63.1,28.94,WNW,287,10.0,13.0,65,0.00,,,0.02,WUHU216DAVISVP2,2013-06-10 21:59:00,
2013-06-10 18:02:00,75.4,63.0,28.94,NW,305,8.0,13.0,65,0.00,,,0.02,WUHU216DAVISVP2,2013-06-10 22:02:00,
2013-06-10 18:03:00,75.4,63.0,28.94,NW,305,7.0,13.0,65,0.00,,,0.02,WUHU216DAVISVP2,2013-06-10 22:03:00,
2013-06-10 18:04:00,75.4,63.0,28.94,WNW,300,6.0,13.0,65,0.00,,,0.02,WUHU216DAVISVP2,2013-06-10 22:04:00,
2013-06-10 18:07:00,75.4,63.0,28.94,WNW,298,9.0,13.0,65,0.00,,,0.02,WUHU216DAVISVP2,2013-06-10 22:07:00,
2013-06-10 18:08:00,75.4,62.8,28.94,West,281,9.0,13.0,65,0.00,,,0.02,WUHU216DAVISVP2,2013-06-10 22:08:00,
2013-06-10 18:09:00,75.3,62.7,28.94,WNW,288,7.0,13.0,65,0.00,,,0.02,WUHU216DAVISVP2,2013-06-10 22:09:00,
2013-06-10 18:10:00,75.3,63.2,28.94,WNW,303,7.0,13.0,66,0.00,,,0.02,WUHU216DAVISVP2,2013-06-10 22:10:00,
2013-06-10 18:12:00,75.3,62.7,28.94,West,278,6.0,12.0,65,0.00,,,0.02,WUHU216DAVISVP2,2013-06-10 22:12:00,
2013-06-10 18:13:00,75.3,63.4,28.94,WNW,289,10.0,12.0,66,0.00,,,0.02,WUHU216DAVISVP2,2013-06-10 22:13:00,
2013-06-10 18:14:00,75.3,62.9,28.94,West,276,7.0,12.0,65,0.00,,,0.02,WUHU216DAVISVP2,2013-06-10 22:14:00,
2013-06-10 18:16:00,75.2,63.3,28.94,NW,306,8.0,12.0,66,0.00,,,0.02,WUHU216DAVISVP2,2013-06-10 22:16:00,
2013-06-10 18:18:00,75.3,63.8,28.95,NNW,342,15.0,15.0,67,0.00,,,0.02,WUHU216DAVISVP2,2013-06-10 22:18:00,
2013-06-10 18:19:00,75.1,64.0,28.95,NNW,343,16.0,19.0,68,0.00,,,0.02,WUHU216DAVISVP2,2013-06-10 22:19:00,
2013-06-10 18:20:00,74.6,64.0,28.95,North,4,10.0,19.0,69,0.00,,,0.02,WUHU216DAVISVP2,2013-06-10 22:20:00,
2013-06-10 18:21:00,74.4,64.2,28.95,NNW,328,12.0,19.0,70,0.00,,,0.02,WUHU216DAVISVP2,2013-06-10 22:21:00,
2013-06-10 18:23:00,73.9,63.7,28.95,NNW,337,14.0,19.0,70,0.00,,,0.02,WUHU216DAVISVP2,2013-06-10 22:23:00,
2013-06-10 18:24:00,73.7,63.9,28.95,NNW,328,9.0,19.0,71,0.00,,,0.02,WUHU216DAVISVP2,2013-06-10 22:24:00,
2013-06-10 18:25:00,73.5,63.7,28.95,NNW,345,10.0,19.0,71,0.00,,,0.02,WUHU216DAVISVP2,2013-06-10 22:25:00,
2013-06-10 18:27:00,73.3,63.9,28.95,NW,322,12.0,19.0,72,0.00,,,0.02,WUHU216DAVISVP2,2013-06-10 22:27:00,
2013-06-10 18:28:00,73.1,63.7,28.95,NW,324,8.0,19.0,72,0.00,,,0.02,WUHU216DAVISVP2,2013-06-10 22:28:00,
2013-06-10 18:29:00,73.1,63.7,28.95,North,8,10.0,19.0,72,0.00,,,0.02,WUHU216DAVISVP2,2013-06-10 22:29:00,
2013-06-10 18:31:00,72.9,63.9,28.95,North,359,10.0,19.0,73,0.00,,,0.02,WUHU216DAVISVP2,2013-06-10 22:31:00,
2013-06-10 18:32:00,72.9,63.9,28.95,NNW,347,7.0,19.0,73,0.00,,,0.02,WUHU216DAVISVP2,2013-06-10 22:32:00,
2013-06-10 18:33:00,72.8,64.2,28.95,NW,322,9.0,19.0,74,0.00,,,0.02,WUHU216DAVISVP2,2013-06-10 22:33:00,
2013-06-10 18:34:00,72.8,64.2,28.95,NNW,334,8.0,19.0,74,0.00,,,0.02,WUHU216DAVISVP2,2013-06-10 22:34:00,
2013-06-10 18:36:00,72.8,64.2,28.95,NW,326,9.0,19.0,74,0.00,,,0.02,WUHU216DAVISVP2,2013-06-10 22:36:00,
2013-06-10 18:38:00,72.7,64.1,28.95,NNW,337,7.0,16.0,74,0.00,,,0.02,WUHU216DAVISVP2,2013-06-10 22:38:00,
2013-06-10 18:39:00,72.7,64.1,28.96,NNW,327,12.0,16.0,74,0.00,,,0.02,WUHU216DAVISVP2,2013-06-10 22:39:00,
2013-06-10 18:41:00,72.7,63.7,28.96,NNW,335,8.0,16.0,73,0.00,,,0.02,WUHU216DAVISVP2,2013-06-10 22:41:00,
2013-06-10 18:43:00,72.6,63.6,28.96,NNW,336,9.0,16.0,73,0.00,,,0.02,WUHU216DAVISVP2,2013-06-10 22:43:00,
2013-06-10 18:44:00,72.6,63.6,28.96,North,359,10.0,16.0,73,0.00,,,0.02,WUHU216DAVISVP2,2013-06-10 22:44:00,
2013-06-10 18:45:00,72.5,63.9,28.96,NW,321,8.0,16.0,74,0.00,,,0.02,WUHU216DAVISVP2,2013-06-10 22:45:00,
2013-06-10 18:46:00,72.4,63.8,28.96,North,359,7.0,16.0,74,0.00,,,0.02,WUHU216DAVISVP2,2013-06-10 22:46:00,
2013-06-10 18:48:00,72.4,63.8,28.96,NW,320,12.0,16.0,74,0.00,,,0.02,WUHU216DAVISVP2,2013-06-10 22:48:00,
2013-06-10 18:49:00,72.3,63.7,28.96,NW,319,6.0,16.0,74,0.00,,,0.02,WUHU216DAVISVP2,2013-06-10 22:49:00,
2013-06-10 18:50:00,72.3,63.7,28.96,NW,318,7.0,16.0,74,0.00,,,0.02,WUHU216DAVISVP2,2013-06-10 22:50:00,
2013-06-10 18:52:00,72.3,63.7,28.96,NNW,328,5.0,16.0,74,0.00,,,0.02,WUHU216DAVISVP2,2013-06-10 22:52:00,
2013-06-10 18:53:00,72.3,63.7,28.96,NW,322,9.0,16.0,74,0.00,,,0.02,WUHU216DAVISVP2,2013-06-10 22:53:00,
2013-06-10 18:54:00,72.2,63.6,28.96,NNW,341,9.0,16.0,74,0.00,,,0.02,WUHU216DAVISVP2,2013-06-10 22:54:00,
2013-06-10 18:55:00,72.1,63.5,28.96,NW,322,9.0,16.0,74,0.00,,,0.02,WUHU216DAVISVP2,2013-06-10 22:55:00,
2013-06-10 18:57:00,72.1,63.5,28.96,WNW,300,11.0,16.0,74,0.00,,,0.02,WUHU216DAVISVP2,2013-06-10 22:57:00,
2013-06-10 18:59:00,72.0,63.4,28.97,WNW,301,10.0,16.0,74,0.00,,,0.02,WUHU216DAVISVP2,2013-06-10 22:59:00,
2013-06-10 19:00:00,72.0,63.8,28.97,NW,324,11.0,16.0,75,0.00,,,0.02,WUHU216DAVISVP2,2013-06-10 23:00:00,
2013-06-10 19:02:00,72.0,63.8,28.97,NW,310,6.0,15.0,75,0.00,,,0.02,WUHU216DAVISVP2,2013-06-10 23:02:00,
2013-06-10 19:04:00,71.9,63.7,28.97,NW,310,6.0,15.0,75,0.00,,,0.02,WUHU216DAVISVP2,2013-06-10 23:04:00,
2013-06-10 19:05:00,71.8,63.6,28.97,WNW,296,6.0,15.0,75,0.00,,,0.02,WUHU216DAVISVP2,2013-06-10 23:05:00,
2013-06-10 19:08:00,71.7,63.9,28.97,NW,320,5.0,15.0,76,0.00,,,0.02,WUHU216DAVISVP2,2013-06-10 23:08:00,
2013-06-10 19:09:00,71.7,63.5,28.97,WNW,303,5.0,15.0,75,0.00,,,0.02,WUHU216DAVISVP2,2013-06-10 23:09:00,
2013-06-10 19:11:00,71.6,63.8,28.97,WNW,296,9.0,15.0,76,0.00,,,0.02,WUHU216DAVISVP2,2013-06-10 23:11:00,
2013-06-10 19:13:00,71.5,63.7,28.97,NW,312,9.0,15.0,76,0.00,,,0.02,WUHU216DAVISVP2,2013-06-10 23:13:00,
2013-06-10 19:14:00,71.5,63.7,28.97,WNW,291,8.0,15.0,76,0.00,,,0.02,WUHU216DAVISVP2,2013-06-10 23:14:00,
2013-06-10 19:16:00,71.5,63.7,28.97,NW,324,8.0,15.0,76,0.00,,,0.02,WUHU216DAVISVP2,2013-06-10 23:16:00,
2013-06-10 19:18:00,71.5,63.7,28.97,NW,306,5.0,13.0,76,0.00,,,0.02,WUHU216DAVISVP2,2013-06-10 23:18:00,
2013-06-10 19:19:00,71.5,63.7,28.97,NW,305,6.0,13.0,76,0.00,,,0.02,WUHU216DAVISVP2,2013-06-10 23:19:00,
2013-06-10 19:20:00,71.5,63.7,28.97,NW,321,11.0,13.0,76,0.00,,,0.02,WUHU216DAVISVP2,2013-06-10 23:20:00,
2013-06-10 19:21:00,71.5,63.7,28.97,WNW,292,11.0,13.0,76,0.00,,,0.02,WUHU216DAVISVP2,2013-06-10 23:21:00,
2013-06-10 19:23:00,71.4,63.6,28.97,WNW,289,8.0,14.0,76,0.00,,,0.02,WUHU216DAVISVP2,2013-06-10 23:23:00,
2013-06-10 19:24:00,71.3,63.5,28.97,WNW,288,6.0,14.0,76,0.00,,,0.02,WUHU216DAVISVP2,2013-06-10 23:24:00,
2013-06-10 19:25:00,71.3,63.5,28.97,WNW,295,7.0,14.0,76,0.00,,,0.02,WUHU216DAVISVP2,2013-06-10 23:25:00,
2013-06-10 19:26:00,71.3,63.5,28.97,NW,305,10.0,14.0,76,0.00,,,0.02,WUHU216DAVISVP2,2013-06-10 23:26:00,
2013-06-10 19:28:00,71.3,63.8,28.97,WNW,295,7.0,14.0,77,0.00,,,0.02,WUHU216DAVISVP2,2013-06-10 23:28:00,
2013-06-10 19:30:00,71.3,63.8,28.97,WNW,288,7.0,14.0,77,0.00,,,0.02,WUHU216DAVISVP2,2013-06-10 23:30:00,
2013-06-10 19:31:00,71.3,63.8,28.97,West,274,5.0,14.0,77,0.00,,,0.02,WUHU216DAVISVP2,2013-06-10 23:31:00,
2013-06-10 19:34:00,71.3,63.8,28.96,WNW,298,7.0,14.0,77,0.00,,,0.02,WUHU216DAVISVP2,2013-06-10 23:34:00,
2013-06-10 19:35:00,71.3,63.8,28.96,WNW,284,6.0,14.0,77,0.00,,,0.02,WUHU216DAVISVP2,2013-06-10 23:35:00,
2013-06-10 19:37:00,71.3,63.8,28.96,WNW,283,7.0,14.0,77,0.00,,,0.02,WUHU216DAVISVP2,2013-06-10 23:37:00,
2013-06-10 19:39:00,71.3,64.2,28.97,WNW,294,5.0,14.0,78,0.00,,,0.02,WUHU216DAVISVP2,2013-06-10 23:39:00,
2013-06-10 19:40:00,71.3,63.8,28.97,NW,305,7.0,14.0,77,0.00,,,0.02,WUHU216DAVISVP2,2013-06-10 23:40:00,
2013-06-10 19:42:00,71.3,63.8,28.97,WNW,299,6.0,12.0,77,0.00,,,0.02,WUHU216DAVISVP2,2013-06-10 23:42:00,
2013-06-10 19:45:00,71.3,63.8,28.97,West,268,4.0,10.0,77,0.00,,,0.02,WUHU216DAVISVP2,2013-06-10 23:45:00,
2013-06-10 19:46:00,71.4,63.9,28.97,West,268,5.0,10.0,77,0.00,,,0.02,WUHU216DAVISVP2,2013-06-10 23:46:00,
2013-06-10 19:47:00,71.4,63.9,28.97,WNW,299,7.0,10.0,77,0.00,,,0.02,WUHU216DAVISVP2,2013-06-10 23:47:00,
2013-06-10 19:50:00,71.3,63.8,28.97,WNW,284,2.0,9.0,77,0.00,,,0.02,WUHU216DAVISVP2,2013-06-10 23:50:00,
2013-06-10 19:51:00,71.3,63.8,28.97,WNW,284,6.0,9.0,77,0.00,,,0.02,WUHU216DAVISVP2,2013-06-10 23:51:00,
2013-06-10 19:52:00,71.3,63.8,28.97,West,280,6.0,8.0,77,0.00,,,0.02,WUHU216DAVISVP2,2013-06-10 23:52:00,
2013-06-10 19:55:00,71.3,63.8,28.97,WNW,287,5.0,10.0,77,0.00,,,0.02,WUHU216DAVISVP2,2013-06-10 23:55:00,
2013-06-10 19:56:00,71.3,63.8,28.97,WNW,287,5.0,10.0,77,0.00,,,0.02,WUHU216DAVISVP2,2013-06-10 23:56:00,
2013-06-10 19:57:00,71.3,63.8,28.97,WNW,284,5.0,10.0,77,0.00,,,0.02,WUHU216DAVISVP2,2013-06-10 23:57:00,
2013-06-10 20:00:00,71.5,64.0,28.97,WNW,287,4.0,10.0,77,0.00,,,0.02,WUHU216DAVISVP2,2013-06-11 00:00:00,
2013-06-10 20:01:00,71.5,64.0,28.97,WNW,287,4.0,10.0,77,0.00,,,0.02,WUHU216DAVISVP2,2013-06-11 00:01:00,
2013-06-10 20:02:00,71.5,64.0,28.97,WNW,287,5.0,10.0,77,0.00,,,0.02,WUHU216DAVISVP2,2013-06-11 00:02:00,
2013-06-10 20:06:00,71.6,64.1,28.97,WNW,284,5.0,10.0,77,0.00,,,0.02,WUHU216DAVISVP2,2013-06-11 00:06:00,
2013-06-10 20:07:00,71.7,64.2,28.97,WNW,284,5.0,10.0,77,0.00,,,0.02,WUHU216DAVISVP2,2013-06-11 00:07:00,
2013-06-10 20:08:00,71.7,64.2,28.97,WNW,284,4.0,10.0,77,0.00,,,0.02,WUHU216DAVISVP2,2013-06-11 00:08:00,
2013-06-10 20:11:00,71.9,64.1,28.97,WNW,287,7.0,10.0,76,0.00,,,0.02,WUHU216DAVISVP2,2013-06-11 00:11:00,
2013-06-10 20:12:00,71.9,64.1,28.97,West,280,6.0,10.0,76,0.00,,,0.02,WUHU216DAVISVP2,2013-06-11 00:12:00,
2013-06-10 20:13:00,71.9,64.1,28.97,West,274,10.0,10.0,76,0.00,,,0.02,WUHU216DAVISVP2,2013-06-11 00:13:00,
2013-06-10 20:16:00,72.0,64.2,28.97,West,272,7.0,10.0,76,0.00,,,0.02,WUHU216DAVISVP2,2013-06-11 00:16:00,
2013-06-10 20:17:00,72.0,63.8,28.97,WNW,288,5.0,10.0,75,0.00,,,0.02,WUHU216DAVISVP2,2013-06-11 00:17:00,
2013-06-10 20:18:00,72.0,63.8,28.96,WNW,287,4.0,10.0,75,0.00,,,0.02,WUHU216DAVISVP2,2013-06-11 00:18:00,
2013-06-10 20:21:00,72.1,63.9,28.96,WNW,287,4.0,10.0,75,0.00,,,0.02,WUHU216DAVISVP2,2013-06-11 00:21:00,
2013-06-10 20:22:00,72.1,63.9,28.96,WNW,287,4.0,10.0,75,0.00,,,0.02,WUHU216DAVISVP2,2013-06-11 00:22:00,
2013-06-10 20:23:00,72.1,63.9,28.97,WNW,287,6.0,10.0,75,0.00,,,0.02,WUHU216DAVISVP2,2013-06-11 00:23:00,
2013-06-10 20:26:00,72.1,63.7,28.97,WNW,287,5.0,10.0,75,0.00,,,0.02,WUHU216DAVISVP2,2013-06-11 00:26:00,
2013-06-10 20:27:00,72.0,63.6,28.97,WNW,287,4.0,10.0,75,0.00,,,0.02,WUHU216DAVISVP2,2013-06-11 00:27:00,
2013-06-10 20:29:00,71.9,63.7,28.97,WNW,287,3.0,10.0,75,0.00,,,0.02,WUHU216DAVISVP2,2013-06-11 00:29:00,
2013-06-10 20:31:00,71.9,63.7,28.96,WNW,287,5.0,10.0,75,0.00,,,0.02,WUHU216DAVISVP2,2013-06-11 00:31:00,
2013-06-10 20:32:00,71.9,63.7,28.96,WNW,288,5.0,10.0,75,0.00,,,0.02,WUHU216DAVISVP2,2013-06-11 00:32:00,
2013-06-10 20:33:00,71.9,64.1,28.96,West,278,6.0,8.0,76,0.00,,,0.02,WUHU216DAVISVP2,2013-06-11 00:33:00,
2013-06-10 20:34:00,71.8,64.0,28.96,West,278,5.0,8.0,76,0.00,,,0.02,WUHU216DAVISVP2,2013-06-11 00:34:00,
2013-06-10 20:37:00,71.7,63.9,28.96,West,279,4.0,8.0,76,0.00,,,0.02,WUHU216DAVISVP2,2013-06-11 00:37:00,
2013-06-10 20:38:00,71.6,63.8,28.97,West,274,7.0,8.0,76,0.00,,,0.02,WUHU216DAVISVP2,2013-06-11 00:38:00,
2013-06-10 20:39:00,71.6,63.8,28.97,WNW,301,5.0,9.0,76,0.00,,,0.02,WUHU216DAVISVP2,2013-06-11 00:39:00,
2013-06-10 20:42:00,71.5,63.7,28.97,WNW,292,4.0,9.0,76,0.00,,,0.02,WUHU216DAVISVP2,2013-06-11 00:42:00,
2013-06-10 20:43:00,71.5,64.0,28.97,WNW,295,5.0,9.0,77,0.00,,,0.02,WUHU216DAVISVP2,2013-06-11 00:43:00,
2013-06-10 20:44:00,71.4,63.9,28.97,WNW,294,5.0,9.0,77,0.00,,,0.02,WUHU216DAVISVP2,2013-06-11 00:44:00,
2013-06-10 20:47:00,71.3,63.8,28.97,WNW,299,7.0,9.0,77,0.00,,,0.02,WUHU216DAVISVP2,2013-06-11 00:47:00,
2013-06-10 20:48:00,71.3,63.8,28.97,WNW,287,8.0,9.0,77,0.00,,,0.02,WUHU216DAVISVP2,2013-06-11 00:48:00,
2013-06-10 20:49:00,71.3,64.2,28.97,WNW,293,4.0,9.0,78,0.00,,,0.02,WUHU216DAVISVP2,2013-06-11 00:49:00,
2013-06-10 20:52:00,71.3,64.2,28.97,WNW,295,8.0,9.0,78,0.00,,,0.02,WUHU216DAVISVP2,2013-06-11 00:52:00,
2013-06-10 20:53:00,71.2,64.1,28.97,WNW,298,5.0,9.0,78,0.00,,,0.02,WUHU216DAVISVP2,2013-06-11 00:53:00,
2013-06-10 20:54:00,71.2,64.1,28.97,WNW,295,9.0,10.0,78,0.00,,,0.02,WUHU216DAVISVP2,2013-06-11 00:54:00,
2013-06-10 20:57:00,71.1,64.4,28.97,WNW,300,7.0,10.0,79,0.00,,,0.02,WUHU216DAVISVP2,2013-06-11 00:57:00,
2013-06-10 20:58:00,71.1,64.4,28.97,WNW,301,5.0,10.0,79,0.00,,,0.02,WUHU216DAVISVP2,2013-06-11 00:58:00,
2013-06-10 21:00:00,71.0,64.3,28.97,WNW,302,4.0,10.0,79,0.00,,,0.02,WUHU216DAVISVP2,2013-06-11 01:00:00,
2013-06-10 21:03:00,70.9,64.5,28.97,NW,306,4.0,10.0,80,0.00,,,0.02,WUHU216DAVISVP2,2013-06-11 01:03:00,
2013-06-10 21:04:00,70.9,64.5,28.97,North,359,6.0,10.0,80,0.00,,,0.02,WUHU216DAVISVP2,2013-06-11 01:04:00,
2013-06-10 21:05:00,70.8,64.4,28.97,NW,312,2.0,10.0,80,0.00,,,0.02,WUHU216DAVISVP2,2013-06-11 01:05:00,
2013-06-10 21:08:00,70.7,64.7,28.97,NNW,332,1.0,10.0,81,0.00,,,0.02,WUHU216DAVISVP2,2013-06-11 01:08:00,
2013-06-10 21:09:00,70.7,64.7,28.97,NW,311,4.0,10.0,81,0.00,,,0.02,WUHU216DAVISVP2,2013-06-11 01:09:00,
2013-06-10 21:10:00,70.6,64.6,28.97,NW,311,4.0,10.0,81,0.00,,,0.02,WUHU216DAVISVP2,2013-06-11 01:10:00,
2013-06-10 21:13:00,70.6,64.6,28.97,WNW,301,4.0,9.0,81,0.00,,,0.02,WUHU216DAVISVP2,2013-06-11 01:13:00,
2013-06-10 21:14:00,70.5,64.5,28.97,WNW,301,4.0,9.0,81,0.00,,,0.02,WUHU216DAVISVP2,2013-06-11 01:14:00,
2013-06-10 21:15:00,70.5,64.5,28.97,WNW,301,5.0,9.0,81,0.00,,,0.02,WUHU216DAVISVP2,2013-06-11 01:15:00,
2013-06-10 21:18:00,70.4,64.7,28.97,NW,306,5.0,9.0,82,0.00,,,0.02,WUHU216DAVISVP2,2013-06-11 01:18:00,
2013-06-10 21:19:00,70.4,64.7,28.97,NW,306,3.0,9.0,82,0.00,,,0.02,WUHU216DAVISVP2,2013-06-11 01:19:00,
2013-06-10 21:20:00,70.4,64.7,28.97,NW,306,4.0,8.0,82,0.00,,,0.02,WUHU216DAVISVP2,2013-06-11 01:20:00,
2013-06-10 21:21:00,70.3,64.6,28.97,WNW,303,6.0,8.0,82,0.00,,,0.02,WUHU216DAVISVP2,2013-06-11 01:21:00,
2013-06-10 21:23:00,70.2,64.5,28.97,NW,305,5.0,8.0,82,0.00,,,0.02,WUHU216DAVISVP2,2013-06-11 01:23:00,
2013-06-10 21:24:00,70.2,64.5,28.97,NW,305,4.0,8.0,82,0.00,,,0.02,WUHU216DAVISVP2,2013-06-11 01:24:00,
2013-06-10 21:25:00,70.2,64.5,28.97,NW,324,5.0,8.0,82,0.00,,,0.02,WUHU216DAVISVP2,2013-06-11 01:25:00,
2013-06-10 21:27:00,70.1,64.4,28.97,WNW,298,5.0,8.0,82,0.00,,,0.02,WUHU216DAVISVP2,2013-06-11 01:27:00,
2013-06-10 21:29:00,70.1,64.7,28.97,WNW,292,5.0,8.0,83,0.00,,,0.02,WUHU216DAVISVP2,2013-06-11 01:29:00,
2013-06-10 21:30:00,70.0,64.6,28.97,WNW,289,5.0,8.0,83,0.00,,,0.02,WUHU216DAVISVP2,2013-06-11 01:30:00,
2013-06-10 21:32:00,70.0,64.6,28.97,WNW,289,6.0,8.0,83,0.00,,,0.02,WUHU216DAVISVP2,2013-06-11 01:32:00,
2013-06-10 21:34:00,69.9,64.5,28.97,WNW,299,4.0,8.0,83,0.00,,,0.02,WUHU216DAVISVP2,2013-06-11 01:34:00,
2013-06-10 21:35:00,69.9,64.5,28.97,WNW,293,5.0,8.0,83,0.00,,,0.02,WUHU216DAVISVP2,2013-06-11 01:35:00,
2013-06-10 21:37:00,69.8,64.5,28.97,WNW,293,4.0,8.0,83,0.00,,,0.02,WUHU216DAVISVP2,2013-06-11 01:37:00,
2013-06-10 21:39:00,69.8,64.8,28.98,WNW,293,5.0,8.0,84,0.00,,,0.02,WUHU216DAVISVP2,2013-06-11 01:39:00,
2013-06-10 21:40:00,69.7,64.4,28.98,WNW,293,4.0,8.0,83,0.00,,,0.02,WUHU216DAVISVP2,2013-06-11 01:40:00,
2013-06-10 21:43:00,69.7,64.7,28.98,WNW,293,4.0,8.0,84,0.00,,,0.02,WUHU216DAVISVP2,2013-06-11 01:43:00,
2013-06-10 21:44:00,69.6,64.6,28.98,WNW,293,3.0,8.0,84,0.00,,,0.02,WUHU216DAVISVP2,2013-06-11 01:44:00,
2013-06-10 21:45:00,69.6,64.6,28.98,WNW,293,3.0,8.0,84,0.00,,,0.02,WUHU216DAVISVP2,2013-06-11 01:45:00,
2013-06-10 21:48:00,69.5,64.5,28.98,WNW,301,6.0,8.0,84,0.00,,,0.02,WUHU216DAVISVP2,2013-06-11 01:48:00,
2013-06-10 21:49:00,69.5,64.5,28.98,WNW,301,5.0,7.0,84,0.00,,,0.02,WUHU216DAVISVP2,2013-06-11 01:49:00,
2013-06-10 21:50:00,69.5,64.8,28.98,WNW,301,5.0,7.0,85,0.00,,,0.02,WUHU216DAVISVP2,2013-06-11 01:50:00,
2013-06-10 21:53:00,69.4,64.7,28.98,WNW,297,5.0,7.0,85,0.00,,,0.02,WUHU216DAVISVP2,2013-06-11 01:53:00,
2013-06-10 21:55:00,69.3,64.6,28.99,WNW,292,6.0,7.0,85,0.00,,,0.02,WUHU216DAVISVP2,2013-06-11 01:55:00,
2013-06-10 21:56:00,69.3,64.6,28.99,WNW,284,6.0,7.0,85,0.00,,,0.02,WUHU216DAVISVP2,2013-06-11 01:56:00,
2013-06-10 21:58:00,69.2,64.8,28.99,WNW,301,7.0,8.0,86,0.00,,,0.02,WUHU216DAVISVP2,2013-06-11 01:58:00,
2013-06-10 22:00:00,69.2,64.8,28.99,NW,308,7.0,9.0,86,0.00,,,0.02,WUHU216DAVISVP2,2013-06-11 02:00:00,
2013-06-10 22:01:00,69.2,64.8,28.99,WNW,299,6.0,9.0,86,0.00,,,0.02,WUHU216DAVISVP2,2013-06-11 02:01:00,
2013-06-10 22:02:00,69.2,64.8,28.99,WNW,295,7.0,9.0,86,0.00,,,0.02,WUHU216DAVISVP2,2013-06-11 02:02:00,
2013-06-10 22:03:00,69.2,64.8,28.99,NW,306,9.0,9.0,86,0.00,,,0.02,WUHU216DAVISVP2,2013-06-11 02:03:00,
2013-06-10 22:05:00,69.2,64.8,28.99,WNW,295,6.0,9.0,86,0.00,,,0.02,WUHU216DAVISVP2,2013-06-11 02:05:00,
2013-06-10 22:06:00,69.2,64.8,28.99,NW,305,6.0,9.0,86,0.00,,,0.02,WUHU216DAVISVP2,2013-06-11 02:06:00,
2013-06-10 22:07:00,69.1,64.7,28.99,NW,314,5.0,9.0,86,0.00,,,0.02,WUHU216DAVISVP2,2013-06-11 02:07:00,
2013-06-10 22:08:00,69.1,64.7,28.99,NNW,336,4.0,10.0,86,0.00,,,0.02,WUHU216DAVISVP2,2013-06-11 02:08:00,
2013-06-10 22:10:00,69.1,64.7,28.99,WNW,298,6.0,10.0,86,0.00,,,0.02,WUHU216DAVISVP2,2013-06-11 02:10:00,
2013-06-10 22:11:00,69.1,64.7,28.99,WNW,295,5.0,10.0,86,0.00,,,0.02,WUHU216DAVISVP2,2013-06-11 02:11:00,
2013-06-10 22:12:00,69.1,64.7,28.99,WNW,295,4.0,10.0,86,0.00,,,0.02,WUHU216DAVISVP2,2013-06-11 02:12:00,
2013-06-10 22:13:00,69.1,64.7,28.99,NW,305,5.0,10.0,86,0.00,,,0.02,WUHU216DAVISVP2,2013-06-11 02:13:00,
2013-06-10 22:16:00,69.0,64.7,29.00,WNW,301,4.0,10.0,86,0.00,,,0.02,WUHU216DAVISVP2,2013-06-11 02:16:00,
2013-06-10 22:17:00,69.0,64.7,29.00,WNW,301,6.0,10.0,86,0.00,,,0.02,WUHU216DAVISVP2,2013-06-11 02:17:00,
2013-06-10 22:18:00,69.0,64.7,29.00,WNW,301,7.0,10.0,86,0.00,,,0.02,WUHU216DAVISVP2,2013-06-11 02:18:00,
2013-06-10 22:22:00,68.9,64.6,29.00,WNW,295,7.0,10.0,86,0.00,,,0.02,WUHU216DAVISVP2,2013-06-11 02:22:00,
2013-06-10 22:23:00,68.9,64.6,29.00,WNW,296,5.0,10.0,86,0.00,,,0.02,WUHU216DAVISVP2,2013-06-11 02:23:00,
2013-06-10 22:27:00,68.9,64.2,29.00,NNW,336,7.0,9.0,85,0.00,,,0.02,WUHU216DAVISVP2,2013-06-11 02:27:00,
2013-06-10 22:28:00,68.9,64.2,29.00,NW,312,6.0,9.0,85,0.00,,,0.02,WUHU216DAVISVP2,2013-06-11 02:28:00,
2013-06-10 22:29:00,68.9,64.2,29.00,NW,315,4.0,9.0,85,0.00,,,0.02,WUHU216DAVISVP2,2013-06-11 02:29:00,
2013-06-10 22:32:00,68.8,64.1,29.00,WNW,301,6.0,9.0,85,0.00,,,0.02,WUHU216DAVISVP2,2013-06-11 02:32:00,
2013-06-10 22:33:00,68.8,64.1,29.00,NW,310,8.0,9.0,85,0.00,,,0.02,WUHU216DAVISVP2,2013-06-11 02:33:00,
2013-06-10 22:34:00,68.8,64.1,29.00,NNW,341,6.0,9.0,85,0.00,,,0.02,WUHU216DAVISVP2,2013-06-11 02:34:00,
2013-06-10 22:38:00,68.7,63.7,29.00,WNW,299,7.0,9.0,84,0.00,,,0.02,WUHU216DAVISVP2,2013-06-11 02:38:00,
2013-06-10 22:39:00,68.6,63.6,29.01,WNW,297,8.0,10.0,84,0.00,,,0.02,WUHU216DAVISVP2,2013-06-11 02:39:00,
2013-06-10 22:43:00,68.6,63.6,29.01,NW,319,6.0,10.0,84,0.00,,,0.02,WUHU216DAVISVP2,2013-06-11 02:43:00,
2013-06-10 22:44:00,68.5,63.5,29.01,NW,309,4.0,10.0,84,0.00,,,0.02,WUHU216DAVISVP2,2013-06-11 02:44:00,
2013-06-10 22:48:00,68.4,63.4,29.01,NW,317,7.0,10.0,84,0.00,,,0.02,WUHU216DAVISVP2,2013-06-11 02:48:00,
2013-06-10 22:49:00,68.4,63.4,29.01,WNW,299,5.0,10.0,84,0.00,,,0.02,WUHU216DAVISVP2,2013-06-11 02:49:00,
2013-06-10 22:50:00,68.4,63.4,29.01,WNW,295,6.0,10.0,84,0.00,,,0.02,WUHU216DAVISVP2,2013-06-11 02:50:00,
2013-06-10 22:53:00,68.4,63.4,29.01,NW,318,5.0,10.0,84,0.00,,,0.02,WUHU216DAVISVP2,2013-06-11 02:53:00,
2013-06-10 22:54:00,68.3,63.3,29.01,NNW,328,3.0,10.0,84,0.00,,,0.02,WUHU216DAVISVP2,2013-06-11 02:54:00,
2013-06-10 22:55:00,68.3,63.3,29.01,NW,326,6.0,10.0,84,0.00,,,0.02,WUHU216DAVISVP2,2013-06-11 02:55:00,
2013-06-10 22:58:00,68.2,63.2,29.01,NW,322,5.0,10.0,84,0.00,,,0.02,WUHU216DAVISVP2,2013-06-11 02:58:00,
2013-06-10 22:59:00,68.1,63.1,29.01,NW,307,4.0,10.0,84,0.00,,,0.02,WUHU216DAVISVP2,2013-06-11 02:59:00,
2013-06-10 23:01:00,68.1,63.1,29.01,NNW,330,7.0,10.0,84,0.00,,,0.02,WUHU216DAVISVP2,2013-06-11 03:01:00,
2013-06-10 23:03:00,68.0,63.0,29.02,WNW,300,8.0,10.0,84,0.00,,,0.02,WUHU216DAVISVP2,2013-06-11 03:03:00,
2013-06-10 23:04:00,68.0,63.0,29.02,NW,322,7.0,10.0,84,0.00,,,0.02,WUHU216DAVISVP2,2013-06-11 03:04:00,
2013-06-10 23:06:00,67.9,63.2,29.01,NW,323,8.0,10.0,85,0.00,,,0.02,WUHU216DAVISVP2,2013-06-11 03:06:00,
2013-06-10 23:08:00,67.9,63.2,29.02,NW,316,4.0,10.0,85,0.00,,,0.02,WUHU216DAVISVP2,2013-06-11 03:08:00,
2013-06-10 23:09:00,67.8,63.1,29.02,NW,316,6.0,10.0,85,0.00,,,0.02,WUHU216DAVISVP2,2013-06-11 03:09:00,
2013-06-10 23:11:00,67.7,63.0,29.02,NW,317,5.0,10.0,85,0.00,,,0.02,WUHU216DAVISVP2,2013-06-11 03:11:00,
2013-06-10 23:13:00,67.6,63.0,29.02,NW,307,5.0,10.0,85,0.00,,,0.02,WUHU216DAVISVP2,2013-06-11 03:13:00,
2013-06-10 23:14:00,67.6,63.0,29.02,NW,318,6.0,10.0,85,0.00,,,0.02,WUHU216DAVISVP2,2013-06-11 03:14:00,
2013-06-10 23:15:00,67.6,63.0,29.02,NW,318,6.0,10.0,85,0.00,,,0.02,WUHU216DAVISVP2,2013-06-11 03:15:00,
2013-06-10 23:16:00,67.6,63.0,29.02,WNW,303,2.0,10.0,85,0.00,,,0.02,WUHU216DAVISVP2,2013-06-11 03:16:00,
2013-06-10 23:18:00,67.5,62.8,29.02,NW,316,5.0,10.0,85,0.00,,,0.02,WUHU216DAVISVP2,2013-06-11 03:18:00,
2013-06-10 23:19:00,67.5,62.8,29.02,NW,316,1.0,10.0,85,0.00,,,0.02,WUHU216DAVISVP2,2013-06-11 03:19:00,
2013-06-10 23:20:00,67.5,62.8,29.02,NW,316,5.0,10.0,85,0.00,,,0.02,WUHU216DAVISVP2,2013-06-11 03:20:00,
2013-06-10 23:22:00,67.4,62.7,29.02,NW,316,4.0,10.0,85,0.00,,,0.02,WUHU216DAVISVP2,2013-06-11 03:22:00,
2013-06-10 23:24:00,67.4,63.1,29.02,NW,319,4.0,10.0,86,0.00,,,0.02,WUHU216DAVISVP2,2013-06-11 03:24:00,
2013-06-10 23:25:00,67.4,63.1,29.02,NW,319,6.0,10.0,86,0.00,,,0.02,WUHU216DAVISVP2,2013-06-11 03:25:00,
2013-06-10 23:27:00,67.3,63.0,29.02,NW,319,4.0,8.0,86,0.00,,,0.02,WUHU216DAVISVP2,2013-06-11 03:27:00,
2013-06-10 23:29:00,67.2,62.9,29.02,WNW,299,2.0,8.0,86,0.00,,,0.02,WUHU216DAVISVP2,2013-06-11 03:29:00,
2013-06-10 23:30:00,67.2,62.9,29.02,WNW,299,4.0,8.0,86,0.00,,,0.02,WUHU216DAVISVP2,2013-06-11 03:30:00,
2013-06-10 23:32:00,67.1,62.8,29.02,WNW,299,6.0,8.0,86,0.00,,,0.02,WUHU216DAVISVP2,2013-06-11 03:32:00,
2013-06-10 23:34:00,67.1,62.8,29.02,WNW,300,4.0,8.0,86,0.00,,,0.02,WUHU216DAVISVP2,2013-06-11 03:34:00,
2013-06-10 23:35:00,67.0,62.7,29.02,WNW,300,2.0,8.0,86,0.00,,,0.02,WUHU216DAVISVP2,2013-06-11 03:35:00,
2013-06-10 23:37:00,67.0,62.7,29.02,NW,326,5.0,8.0,86,0.00,,,0.02,WUHU216DAVISVP2,2013-06-11 03:37:00,
2013-06-10 23:39:00,66.9,62.6,29.02,WNW,303,4.0,8.0,86,0.00,,,0.02,WUHU216DAVISVP2,2013-06-11 03:39:00,
2013-06-10 23:40:00,66.9,62.6,29.02,WNW,303,4.0,8.0,86,0.00,,,0.02,WUHU216DAVISVP2,2013-06-11 03:40:00,
2013-06-10 23:41:00,66.9,62.6,29.02,NW,324,4.0,8.0,86,0.00,,,0.02,WUHU216DAVISVP2,2013-06-11 03:41:00,
2013-06-10 23:42:00,66.8,62.5,29.02,NW,313,5.0,8.0,86,0.00,,,0.02,WUHU216DAVISVP2,2013-06-11 03:42:00,
2013-06-10 23:44:00,66.8,62.8,29.02,NW,308,6.0,8.0,87,0.00,,,0.02,WUHU216DAVISVP2,2013-06-11 03:44:00,
2013-06-10 23:45:00,66.8,62.8,29.02,NW,318,5.0,8.0,87,0.00,,,0.02,WUHU216DAVISVP2,2013-06-11 03:45:00,
2013-06-10 23:47:00,66.7,62.7,29.02,NW,305,4.0,8.0,87,0.00,,,0.02,WUHU216DAVISVP2,2013-06-11 03:47:00,
2013-06-10 23:49:00,66.6,62.6,29.02,NNW,330,6.0,9.0,87,0.00,,,0.02,WUHU216DAVISVP2,2013-06-11 03:49:00,
2013-06-10 23:50:00,66.6,62.6,29.02,NNW,329,5.0,9.0,87,0.00,,,0.02,WUHU216DAVISVP2,2013-06-11 03:50:00,
2013-06-10 23:52:00,66.5,62.5,29.02,NW,305,2.0,9.0,87,0.00,,,0.02,WUHU216DAVISVP2,2013-06-11 03:52:00,
2013-06-10 23:53:00,66.5,62.5,29.02,NW,326,6.0,9.0,87,0.00,,,0.02,WUHU216DAVISVP2,2013-06-11 03:53:00,
2013-06-10 23:55:00,66.5,62.5,29.02,NNW,327,5.0,10.0,87,0.00,,,0.02,WUHU216DAVISVP2,2013-06-11 03:55:00,
2013-06-10 23:57:00,66.4,62.4,29.02,NW,312,3.0,10.0,87,0.00,,,0.02,WUHU216DAVISVP2,2013-06-11 03:57:00,
2013-06-10 23:58:00,66.3,62.3,29.02,NW,312,6.0,10.0,87,0.00,,,0.02,WUHU216DAVISVP2,2013-06-11 03:58:00,